| time (UTC) | temp F | wind direction | speed knots | gust knots | rain 1hr in | rain 24hr in | rain mn in | humidity % | barometer mb |
| 20260506222413 | 57 | 341 | 2.6 | 10.4 | 0.01 | 0.03 | 0.03 | 97 | 1008.1 |
| 20260506222256 | 57 | 39 | 0.9 | 10.4 | 0.01 | 0.03 | 0.03 | 97 | 1008.1 |
| 20260506222204 | 57 | 35 | 1.7 | 10.4 | 0.01 | 0.03 | 0.03 | 97 | 1008.1 |
| 20260506222108 | 57 | 36 | 0.9 | 10.4 | 0.01 | 0.03 | 0.03 | 97 | 1008.2 |
| 20260506222010 | 57 | 16 | 1.7 | 10.4 | 0.01 | 0.03 | 0.03 | 97 | 1008.2 |
| 20260506221914 | 57 | 29 | 1.7 | 10.4 | 0.01 | 0.03 | 0.03 | 97 | 1008.2 |
| 20260506221757 | 57 | 49 | 0.9 | 7.8 | 0.01 | 0.03 | 0.03 | 97 | 1008.2 |
| 20260506221700 | 57 | 67 | 0.9 | 7.8 | 0.01 | 0.03 | 0.03 | 96 | 1008.1 |
| 20260506221625 | 57 | 56 | 1.7 | 7.8 | 0.01 | 0.03 | 0.03 | 96 | 1008.3 |
| 20260506221532 | 57 | 42 | 2.6 | 7.8 | 0.01 | 0.03 | 0.03 | 96 | 1008.2 |
| 20260506221355 | 57 | 15 | 3.5 | 7.8 | 0.01 | 0.03 | 0.03 | 96 | 1008.3 |
| 20260506221258 | 57 | 345 | 2.6 | 7.8 | 0.01 | 0.03 | 0.03 | 96 | 1008.3 |
| 20260506221202 | 57 | 354 | 1.7 | 7.8 | 0.01 | 0.03 | 0.03 | 96 | 1008.4 |
| 20260506221105 | 57 | 58 | 2.6 | 7.8 | 0.01 | 0.03 | 0.03 | 96 | 1008.3 |
| 20260506221007 | 57 | 37 | 2.6 | 7.8 | 0.01 | 0.03 | 0.03 | 96 | 1008.3 |
| 20260506220854 | 57 | 59 | 0.9 | 7.0 | 0.01 | 0.03 | 0.03 | 96 | 1008.3 |
| 20260506220758 | 57 | 23 | 2.6 | 7.0 | 0.01 | 0.03 | 0.03 | 96 | 1008.3 |
| 20260506220702 | 58 | 15 | 2.6 | 7.8 | 0.01 | 0.03 | 0.03 | 96 | 1008.4 |
| 20260506220606 | 58 | 343 | 3.5 | 7.8 | 0.01 | 0.03 | 0.03 | 96 | 1008.4 |
| 20260506220508 | 58 | 40 | 3.5 | 7.8 | 0.01 | 0.03 | 0.03 | 96 | 1008.5 |
| 20260506220431 | 58 | 348 | 1.7 | 7.8 | 0.01 | 0.03 | 0.03 | 96 | 1008.5 |
| 20260506220258 | 58 | 24 | 0.9 | 7.8 | 0.01 | 0.03 | 0.03 | 96 | 1008.4 |
| 20260506220201 | 58 | 32 | 1.7 | 7.8 | 0.01 | 0.03 | 0.03 | 95 | 1008.4 |
| 20260506220116 | 58 | 76 | 1.7 | 9.6 | 0.01 | 0.03 | 0.03 | 95 | 1008.4 |
| 20260506220001 | 58 | 335 | 2.6 | 11.3 | 0.01 | 0.03 | 0.03 | 95 | 1008.4 |
| 20260506215905 | 58 | 38 | 2.6 | 11.3 | 0.01 | 0.03 | 0.03 | 95 | 1008.4 |
| 20260506215808 | 58 | 8 | 0.9 | 11.3 | 0.01 | 0.03 | 0.03 | 95 | 1008.5 |
| 20260506215656 | 58 | 6 | 0.9 | 11.3 | 0.01 | 0.03 | 0.03 | 95 | 1008.4 |
| 20260506215559 | 58 | 6 | 1.7 | 11.3 | 0.01 | 0.03 | 0.03 | 95 | 1008.5 |
| 20260506215502 | 58 | 353 | 3.5 | 11.3 | 0.01 | 0.03 | 0.03 | 95 | 1008.5 |
| 20260506215425 | 58 | 25 | 4.3 | 13.9 | 0.01 | 0.03 | 0.03 | 95 | 1008.6 |
| 20260506215308 | 58 | 61 | 3.5 | 13.9 | 0.00 | 0.02 | 0.02 | 95 | 1008.5 |
| 20260506215212 | 58 | 8 | 3.5 | 13.9 | 0.00 | 0.02 | 0.02 | 95 | 1008.5 |
| 20260506215055 | 58 | 354 | 6.1 | 13.9 | 0.00 | 0.02 | 0.02 | 95 | 1008.5 |
| 20260506215001 | 59 | 335 | 5.2 | 13.9 | 0.01 | 0.02 | 0.02 | 95 | 1008.4 |
| 20260506214905 | 59 | 331 | 1.7 | 13.9 | 0.01 | 0.02 | 0.02 | 95 | 1008.4 |
| 20260506214808 | 59 | 62 | 0.9 | 13.9 | 0.01 | 0.02 | 0.02 | 94 | 1008.3 |
| 20260506214712 | 59 | 25 | 1.7 | 13.9 | 0.01 | 0.02 | 0.02 | 94 | 1008.4 |
| 20260506214556 | 59 | 68 | 4.3 | 13.9 | 0.01 | 0.02 | 0.02 | 94 | 1008.3 |
| 20260506214458 | 59 | 1 | 3.5 | 14.8 | 0.01 | 0.02 | 0.02 | 94 | 1008.4 |
| 20260506214426 | 59 | 33 | 0.9 | 7.8 | 0.01 | 0.02 | 0.02 | 94 | 1008.4 |
| 20260506214309 | 59 | 16 | 0.0 | 10.4 | 0.01 | 0.02 | 0.02 | 94 | 1008.4 |
| 20260506214213 | 59 | 52 | 0.9 | 10.4 | 0.01 | 0.02 | 0.02 | 94 | 1008.5 |
| 20260506214056 | 59 | 34 | 2.6 | 10.4 | 0.01 | 0.02 | 0.02 | 94 | 1008.5 |
| 20260506213958 | 59 | 54 | 2.6 | 10.4 | 0.01 | 0.02 | 0.02 | 93 | 1008.5 |
| 20260506213922 | 59 | 18 | 2.6 | 10.4 | 0.01 | 0.02 | 0.02 | 93 | 1008.5 |
| 20260506213826 | 59 | 79 | 2.6 | 10.4 | 0.01 | 0.02 | 0.02 | 93 | 1008.6 |
| 20260506213712 | 59 | 28 | 2.6 | 10.4 | 0.01 | 0.02 | 0.02 | 93 | 1008.6 |
| 20260506213616 | 59 | 57 | 3.5 | 10.4 | 0.01 | 0.02 | 0.02 | 93 | 1008.6 |
| 20260506213457 | 59 | 32 | 2.6 | 11.3 | 0.01 | 0.02 | 0.02 | 93 | 1008.5 |
| 20260506213401 | 59 | 5 | 0.9 | 7.0 | 0.01 | 0.02 | 0.02 | 93 | 1008.5 |
| 20260506213304 | 59 | 45 | 0.9 | 7.0 | 0.01 | 0.02 | 0.02 | 93 | 1008.6 |
| 20260506213208 | 59 | 25 | 1.7 | 7.0 | 0.01 | 0.02 | 0.02 | 93 | 1008.6 |
| 20260506213056 | 59 | 62 | 1.7 | 7.0 | 0.01 | 0.02 | 0.02 | 93 | 1008.6 |
| 20260506212958 | 59 | 37 | 1.7 | 12.2 | 0.01 | 0.02 | 0.02 | 93 | 1008.7 |
| 20260506212901 | 59 | 34 | 0.9 | 12.2 | 0.01 | 0.02 | 0.02 | 93 | 1008.7 |
| 20260506212805 | 59 | 29 | 0.9 | 12.2 | 0.01 | 0.02 | 0.02 | 93 | 1008.6 |
| 20260506212708 | 59 | 3 | 2.6 | 12.2 | 0.01 | 0.02 | 0.02 | 93 | 1008.6 |
| 20260506212632 | 59 | 39 | 1.7 | 12.2 | 0.01 | 0.02 | 0.02 | 93 | 1008.6 |
| 20260506212514 | 59 | 21 | 0.9 | 12.2 | 0.01 | 0.02 | 0.02 | 93 | 1008.7 |
| 20260506212422 | 59 | 41 | 1.7 | 12.2 | 0.01 | 0.02 | 0.02 | 93 | 1008.7 |
| 20260506212306 | 59 | 348 | 3.5 | 12.2 | 0.01 | 0.02 | 0.02 | 93 | 1008.6 |
| 20260506212207 | 59 | 5 | 3.5 | 12.2 | 0.01 | 0.02 | 0.02 | 93 | 1008.7 |
| 20260506212131 | 59 | 44 | 1.7 | 10.4 | 0.01 | 0.02 | 0.02 | 93 | 1008.7 |
| 20260506212013 | 59 | 49 | 2.6 | 10.4 | 0.01 | 0.02 | 0.02 | 93 | 1008.6 |
| 20260506211916 | 59 | 20 | 3.5 | 10.4 | 0.01 | 0.02 | 0.02 | 93 | 1008.6 |
| 20260506211759 | 59 | 20 | 1.7 | 11.3 | 0.01 | 0.02 | 0.02 | 93 | 1008.7 |
| 20260506211706 | 59 | 54 | 2.6 | 10.4 | 0.01 | 0.02 | 0.02 | 93 | 1008.7 |
| 20260506211630 | 59 | 47 | 5.2 | 10.4 | 0.01 | 0.02 | 0.02 | 93 | 1008.6 |
| 20260506211512 | 59 | 18 | 2.6 | 10.4 | 0.01 | 0.02 | 0.02 | 94 | 1008.7 |
| 20260506211355 | 59 | 32 | 0.9 | 10.4 | 0.01 | 0.02 | 0.02 | 94 | 1008.7 |
| 20260506211319 | 59 | 31 | 4.3 | 10.4 | 0.01 | 0.02 | 0.02 | 94 | 1008.7 |
| 20260506211201 | 59 | 28 | 5.2 | 10.4 | 0.01 | 0.02 | 0.02 | 94 | 1008.7 |
| 20260506211105 | 59 | 9 | 3.5 | 10.4 | 0.01 | 0.02 | 0.02 | 94 | 1008.7 |
| 20260506211011 | 59 | 326 | 2.6 | 10.4 | 0.01 | 0.02 | 0.02 | 94 | 1008.7 |
| 20260506210854 | 59 | 60 | 0.9 | 10.4 | 0.01 | 0.02 | 0.02 | 94 | 1008.7 |
| 20260506210758 | 59 | 5 | 0.0 | 10.4 | 0.02 | 0.02 | 0.02 | 94 | 1008.7 |
| 20260506210701 | 59 | 58 | 0.9 | 10.4 | 0.02 | 0.02 | 0.02 | 94 | 1008.7 |
| 20260506210627 | 59 | 58 | 0.9 | 10.4 | 0.02 | 0.02 | 0.02 | 94 | 1008.7 |
| 20260506210528 | 59 | 18 | 0.9 | 10.4 | 0.02 | 0.02 | 0.02 | 94 | 1008.7 |
| 20260506210410 | 59 | 360 | 1.7 | 10.4 | 0.02 | 0.02 | 0.02 | 94 | 1008.8 |
| 20260506210318 | 59 | 11 | 0.9 | 9.6 | 0.02 | 0.02 | 0.02 | 94 | 1008.8 |
| 20260506210221 | 59 | 58 | 2.6 | 9.6 | 0.02 | 0.02 | 0.02 | 94 | 1008.7 |
| 20260506210115 | 59 | 51 | 3.5 | 9.6 | 0.02 | 0.02 | 0.02 | 94 | 1008.8 |
| 20260506205959 | 59 | 41 | 1.7 | 7.0 | 0.02 | 0.02 | 0.02 | 94 | 1008.7 |
| 20260506205902 | 59 | 51 | 1.7 | 12.2 | 0.02 | 0.02 | 0.02 | 94 | 1008.7 |
| 20260506205806 | 59 | 341 | 2.6 | 12.2 | 0.02 | 0.02 | 0.02 | 94 | 1008.7 |
| 20260506205709 | 59 | 13 | 2.6 | 12.2 | 0.02 | 0.02 | 0.02 | 94 | 1008.7 |
| 20260506205617 | 59 | 20 | 1.7 | 12.2 | 0.02 | 0.02 | 0.02 | 94 | 1008.7 |
| 20260506205458 | 59 | 19 | 1.7 | 12.2 | 0.02 | 0.02 | 0.02 | 94 | 1008.7 |
| 20260506205422 | 59 | 15 | 0.9 | 12.2 | 0.02 | 0.02 | 0.02 | 94 | 1008.7 |
| 20260506205306 | 59 | 47 | 0.9 | 12.2 | 0.02 | 0.02 | 0.02 | 94 | 1008.8 |
| 20260506205228 | 59 | 28 | 3.5 | 12.2 | 0.02 | 0.02 | 0.02 | 94 | 1008.8 |
| 20260506205132 | 59 | 39 | 2.6 | 12.2 | 0.02 | 0.02 | 0.02 | 94 | 1008.8 |
| 20260506205013 | 59 | 354 | 1.7 | 12.2 | 0.01 | 0.01 | 0.01 | 94 | 1008.9 |
| 20260506204916 | 59 | 18 | 2.6 | 12.2 | 0.01 | 0.01 | 0.01 | 94 | 1008.7 |
| 20260506204803 | 59 | 76 | 2.6 | 12.2 | 0.01 | 0.01 | 0.01 | 94 | 1008.7 |
| 20260506204706 | 59 | 25 | 2.6 | 12.2 | 0.01 | 0.01 | 0.01 | 94 | 1008.9 |
| 20260506204611 | 59 | 41 | 3.5 | 12.2 | 0.01 | 0.01 | 0.01 | 93 | 1008.9 |
| 20260506204513 | 59 | 84 | 3.5 | 12.2 | 0.01 | 0.01 | 0.01 | 93 | 1008.9 |
| 20260506204357 | 59 | 41 | 4.3 | 13.0 | 0.01 | 0.01 | 0.01 | 93 | 1008.9 |
| 20260506204300 | 59 | 37 | 2.6 | 10.4 | 0.01 | 0.01 | 0.01 | 93 | 1008.9 |
| 20260506204208 | 59 | 51 | 0.9 | 10.4 | 0.01 | 0.01 | 0.01 | 93 | 1008.8 |
| 20260506204111 | 59 | 28 | 0.9 | 10.4 | 0.01 | 0.01 | 0.01 | 93 | 1008.8 |
| 20260506204014 | 59 | 25 | 0.9 | 10.4 | 0.01 | 0.01 | 0.01 | 93 | 1008.9 |
| 20260506203857 | 59 | 41 | 1.7 | 10.4 | 0.01 | 0.01 | 0.01 | 93 | 1008.9 |
| 20260506203801 | 59 | 43 | 2.6 | 10.4 | 0.01 | 0.01 | 0.01 | 93 | 1008.9 |
| 20260506203704 | 59 | 22 | 4.3 | 10.4 | 0.01 | 0.01 | 0.01 | 92 | 1009.0 |
| 20260506203612 | 59 | 330 | 4.3 | 11.3 | 0.01 | 0.01 | 0.01 | 92 | 1009.0 |
| 20260506203454 | 59 | 27 | 2.6 | 10.4 | 0.01 | 0.01 | 0.01 | 92 | 1009.0 |
| 20260506203357 | 60 | 8 | 1.7 | 10.4 | 0.01 | 0.01 | 0.01 | 92 | 1009.0 |
| 20260506203301 | 60 | 22 | 1.7 | 10.4 | 0.01 | 0.01 | 0.01 | 92 | 1009.0 |
| 20260506203205 | 60 | 70 | 1.7 | 10.4 | 0.01 | 0.01 | 0.01 | 92 | 1009.0 |
| 20260506203128 | 60 | 360 | 1.7 | 10.4 | 0.01 | 0.01 | 0.01 | 92 | 1009.0 |
| 20260506203010 | 60 | 8 | 1.7 | 10.4 | 0.01 | 0.01 | 0.01 | 92 | 1009.1 |
| 20260506202917 | 60 | 72 | 2.6 | 10.4 | 0.01 | 0.01 | 0.01 | 92 | 1009.1 |
| 20260506202800 | 60 | 49 | 1.7 | 8.7 | 0.01 | 0.01 | 0.01 | 92 | 1009.0 |
| 20260506202704 | 60 | 29 | 2.6 | 9.6 | 0.01 | 0.01 | 0.01 | 92 | 1009.0 |
| 20260506202628 | 60 | 354 | 2.6 | 10.4 | 0.01 | 0.01 | 0.01 | 92 | 1009.1 |
| 20260506202510 | 60 | 74 | 0.9 | 10.4 | 0.01 | 0.01 | 0.01 | 92 | 1009.0 |
| 20260506202412 | 60 | 13 | 1.7 | 10.4 | 0.01 | 0.01 | 0.01 | 92 | 1009.0 |
| 20260506202259 | 60 | 84 | 4.3 | 10.4 | 0.01 | 0.01 | 0.01 | 91 | 1009.0 |
| 20260506202203 | 60 | 14 | 3.5 | 10.4 | 0.01 | 0.01 | 0.01 | 92 | 1009.0 |
| 20260506202108 | 60 | 59 | 1.7 | 10.4 | 0.01 | 0.01 | 0.01 | 91 | 1009.0 |
| 20260506202030 | 60 | 51 | 2.6 | 10.4 | 0.01 | 0.01 | 0.01 | 91 | 1009.0 |
| 20260506201913 | 60 | 32 | 2.6 | 10.4 | 0.01 | 0.01 | 0.01 | 91 | 1008.8 |
| 20260506201756 | 60 | 325 | 3.5 | 10.4 | 0.01 | 0.01 | 0.01 | 91 | 1008.8 |
| 20260506201721 | 60 | 12 | 1.7 | 12.2 | 0.01 | 0.01 | 0.01 | 91 | 1008.9 |
| 20260506201609 | 60 | 75 | 1.7 | 12.2 | 0.01 | 0.01 | 0.01 | 91 | 1009.0 |
| 20260506201511 | 60 | 53 | 3.5 | 12.2 | 0.01 | 0.01 | 0.01 | 91 | 1008.9 |
| 20260506201354 | 60 | 35 | 2.6 | 12.2 | 0.01 | 0.01 | 0.01 | 91 | 1008.9 |
| 20260506201258 | 60 | 59 | 1.7 | 12.2 | 0.01 | 0.01 | 0.01 | 91 | 1009.0 |
| 20260506201201 | 60 | 347 | 1.7 | 12.2 | 0.01 | 0.01 | 0.01 | 91 | 1009.0 |
| 20260506201125 | 60 | 44 | 0.9 | 12.2 | 0.01 | 0.01 | 0.01 | 91 | 1009.1 |
| 20260506201007 | 60 | 22 | 2.6 | 12.2 | 0.01 | 0.01 | 0.01 | 91 | 1009.1 |
| 20260506200854 | 60 | 56 | 2.6 | 13.0 | 0.01 | 0.01 | 0.01 | 91 | 1009.1 |
| 20260506200758 | 60 | 342 | 0.9 | 13.9 | 0.00 | 0.00 | 0.00 | 91 | 1009.2 |
| 20260506200700 | 60 | 47 | 2.6 | 13.9 | 0.00 | 0.00 | 0.00 | 91 | 1009.1 |
| 20260506200605 | 60 | 319 | 2.6 | 13.9 | 0.00 | 0.00 | 0.00 | 91 | 1009.1 |
| 20260506200507 | 60 | 69 | 2.6 | 13.9 | 0.00 | 0.00 | 0.00 | 91 | 1009.0 |
| 20260506200431 | 60 | 333 | 4.3 | 13.9 | 0.00 | 0.00 | 0.00 | 90 | 1009.1 |
| 20260506200257 | 60 | 18 | 5.2 | 13.9 | 0.00 | 0.00 | 0.00 | 90 | 1009.1 |
| 20260506200201 | 60 | 353 | 3.5 | 13.9 | 0.00 | 0.00 | 0.00 | 90 | 1009.0 |
| 20260506200115 | 60 | 53 | 3.5 | 13.9 | 0.00 | 0.00 | 0.00 | 91 | 1009.0 |
| 20260506200000 | 60 | 32 | 3.5 | 13.9 | 0.00 | 0.00 | 0.00 | 90 | 1008.9 |
| 20260506195903 | 60 | 4 | 2.6 | 14.8 | 0.00 | 0.00 | 0.00 | 90 | 1009.1 |
| 20260506195807 | 60 | 34 | 3.5 | 11.3 | 0.00 | 0.00 | 0.00 | 90 | 1009.0 |
| 20260506195654 | 60 | 9 | 2.6 | 11.3 | 0.00 | 0.00 | 0.00 | 90 | 1009.0 |
| 20260506195559 | 60 | 359 | 2.6 | 11.3 | 0.00 | 0.00 | 0.00 | 90 | 1008.9 |
| 20260506195502 | 60 | 338 | 4.3 | 11.3 | 0.00 | 0.00 | 0.00 | 90 | 1008.8 |
| 20260506195405 | 60 | 355 | 4.3 | 11.3 | 0.00 | 0.00 | 0.00 | 89 | 1009.0 |
| 20260506195308 | 60 | 4 | 3.5 | 11.3 | 0.00 | 0.00 | 0.00 | 89 | 1009.0 |
| 20260506195212 | 60 | 51 | 2.6 | 11.3 | 0.00 | 0.00 | 0.00 | 89 | 1009.1 |
| 20260506195059 | 61 | 43 | 3.5 | 11.3 | 0.00 | 0.00 | 0.00 | 89 | 1009.0 |
| 20260506195002 | 61 | 6 | 1.7 | 11.3 | 0.00 | 0.00 | 0.00 | 89 | 1009.0 |
| 20260506194905 | 61 | 33 | 1.7 | 11.3 | 0.00 | 0.00 | 0.00 | 89 | 1009.0 |
| 20260506194809 | 61 | 28 | 3.5 | 11.3 | 0.00 | 0.00 | 0.00 | 89 | 1009.0 |
| 20260506194712 | 61 | 28 | 3.5 | 11.3 | 0.00 | 0.00 | 0.00 | 88 | 1009.1 |
| 20260506194636 | 61 | 33 | 3.5 | 11.3 | 0.00 | 0.00 | 0.00 | 88 | 1009.0 |
| 20260506194501 | 61 | 23 | 1.7 | 10.4 | 0.00 | 0.00 | 0.00 | 88 | 1009.1 |
| 20260506194405 | 61 | 51 | 1.7 | 10.4 | 0.00 | 0.00 | 0.00 | 87 | 1009.1 |
| 20260506194328 | 61 | 53 | 0.9 | 10.4 | 0.00 | 0.00 | 0.00 | 87 | 1009.1 |
| 20260506194211 | 61 | 42 | 3.5 | 10.4 | 0.00 | 0.00 | 0.00 | 87 | 1009.1 |
| 20260506194115 | 61 | 345 | 2.6 | 10.4 | 0.00 | 0.00 | 0.00 | 86 | 1009.1 |
| 20260506193957 | 61 | 47 | 2.6 | 10.4 | 0.00 | 0.00 | 0.00 | 86 | 1009.1 |
| 20260506193900 | 61 | 37 | 4.3 | 14.8 | 0.00 | 0.00 | 0.00 | 86 | 1009.1 |
| 20260506193828 | 61 | 333 | 4.3 | 14.8 | 0.00 | 0.00 | 0.00 | 86 | 1009.3 |
| 20260506193711 | 61 | 5 | 2.6 | 14.8 | 0.00 | 0.00 | 0.00 | 86 | 1009.1 |
| 20260506193615 | 61 | 49 | 2.6 | 14.8 | 0.00 | 0.00 | 0.00 | 85 | 1009.2 |
| 20260506193457 | 61 | 50 | 0.9 | 14.8 | 0.00 | 0.00 | 0.00 | 85 | 1009.2 |
| 20260506193420 | 61 | 37 | 0.9 | 14.8 | 0.00 | 0.00 | 0.00 | 85 | 1009.3 |
| 20260506193303 | 62 | 35 | 0.9 | 14.8 | 0.00 | 0.00 | 0.00 | 84 | 1009.3 |
| 20260506193206 | 62 | 42 | 2.6 | 14.8 | 0.00 | 0.00 | 0.00 | 84 | 1009.2 |
| 20260506193115 | 62 | 28 | 4.3 | 14.8 | 0.00 | 0.00 | 0.00 | 84 | 1009.2 |
| 20260506193016 | 62 | 10 | 0.9 | 10.4 | 0.00 | 0.00 | 0.00 | 84 | 1009.2 |
| 20260506192859 | 62 | 39 | 0.0 | 10.4 | 0.00 | 0.00 | 0.00 | 83 | 1009.3 |
| 20260506192802 | 62 | 38 | 0.9 | 10.4 | 0.00 | 0.00 | 0.00 | 83 | 1009.3 |
| 20260506192706 | 62 | 41 | 0.9 | 10.4 | 0.00 | 0.00 | 0.00 | 83 | 1009.2 |
| 20260506192610 | 62 | 41 | 0.9 | 10.4 | 0.00 | 0.00 | 0.00 | 83 | 1009.3 |
| 20260506192457 | 62 | 82 | 3.5 | 10.4 | 0.00 | 0.00 | 0.00 | 82 | 1009.2 |
| 20260506192400 | 62 | 348 | 5.2 | 10.4 | 0.00 | 0.00 | 0.00 | 82 | 1009.2 |
| 20260506192305 | 62 | 344 | 4.3 | 11.3 | 0.00 | 0.00 | 0.00 | 82 | 1009.2 |
| 20260506192206 | 62 | 321 | 3.5 | 11.3 | 0.00 | 0.00 | 0.00 | 81 | 1009.3 |
| 20260506192111 | 62 | 39 | 3.5 | 11.3 | 0.00 | 0.00 | 0.00 | 82 | 1009.2 |
| 20260506192012 | 62 | 93 | 2.6 | 11.3 | 0.00 | 0.00 | 0.00 | 82 | 1009.3 |
| 20260506191859 | 62 | 27 | 1.7 | 11.3 | 0.00 | 0.00 | 0.00 | 81 | 1009.3 |
| 20260506191823 | 63 | 54 | 2.6 | 11.3 | 0.00 | 0.00 | 0.00 | 81 | 1009.3 |
| 20260506191706 | 63 | 349 | 5.2 | 11.3 | 0.00 | 0.00 | 0.00 | 80 | 1009.3 |
| 20260506191610 | 63 | 330 | 5.2 | 11.3 | 0.00 | 0.00 | 0.00 | 80 | 1009.3 |
| 20260506191533 | 63 | 83 | 3.5 | 13.0 | 0.00 | 0.00 | 0.00 | 80 | 1009.3 |
| 20260506191355 | 63 | 360 | 2.6 | 10.4 | 0.00 | 0.00 | 0.00 | 80 | 1009.4 |
| 20260506191259 | 63 | 354 | 2.6 | 10.4 | 0.00 | 0.00 | 0.00 | 79 | 1009.4 |
| 20260506191206 | 63 | 29 | 2.6 | 10.4 | 0.00 | 0.00 | 0.00 | 79 | 1009.4 |
| 20260506191130 | 63 | 9 | 3.5 | 10.4 | 0.00 | 0.00 | 0.00 | 78 | 1009.4 |
| 20260506191012 | 64 | 62 | 4.3 | 13.0 | 0.00 | 0.00 | 0.00 | 77 | 1009.5 |
| 20260506190855 | 64 | 37 | 4.3 | 13.0 | 0.00 | 0.00 | 0.00 | 77 | 1009.4 |
| 20260506190758 | 64 | 355 | 4.3 | 13.0 | 0.00 | 0.00 | 0.00 | 77 | 1009.3 |
| 20260506190702 | 64 | 40 | 4.3 | 13.0 | 0.00 | 0.00 | 0.00 | 76 | 1009.4 |
| 20260506190610 | 64 | 49 | 2.6 | 13.0 | 0.00 | 0.00 | 0.00 | 76 | 1009.3 |
| 20260506190533 | 64 | 79 | 2.6 | 13.0 | 0.00 | 0.00 | 0.00 | 75 | 1009.4 |
| 20260506190355 | 64 | 18 | 3.5 | 13.0 | 0.00 | 0.00 | 0.00 | 75 | 1009.3 |
| 20260506190259 | 64 | 16 | 4.3 | 13.0 | 0.00 | 0.00 | 0.00 | 75 | 1009.4 |
| 20260506190223 | 64 | 58 | 4.3 | 13.0 | 0.00 | 0.00 | 0.00 | 75 | 1009.5 |
| 20260506190117 | 64 | 37 | 2.6 | 13.0 | 0.00 | 0.00 | 0.00 | 74 | 1009.3 |
| 20260506190022 | 65 | 44 | 6.1 | 13.0 | 0.00 | 0.00 | 0.00 | 74 | 1009.4 |
| 20260506185905 | 65 | 76 | 6.1 | 13.9 | 0.00 | 0.00 | 0.00 | 74 | 1009.5 |
| 20260506185812 | 65 | 345 | 4.3 | 13.0 | 0.00 | 0.00 | 0.00 | 74 | 1009.3 |
| 20260506185655 | 65 | 345 | 2.6 | 13.0 | 0.00 | 0.00 | 0.00 | 74 | 1009.4 |
| 20260506185559 | 65 | 34 | 2.6 | 13.0 | 0.00 | 0.00 | 0.00 | 74 | 1009.5 |
| 20260506185501 | 65 | 62 | 2.6 | 13.0 | 0.00 | 0.00 | 0.00 | 73 | 1009.5 |
| 20260506185405 | 65 | 76 | 3.5 | 13.0 | 0.00 | 0.00 | 0.00 | 73 | 1009.4 |
| 20260506185308 | 65 | 12 | 6.1 | 13.9 | 0.00 | 0.00 | 0.00 | 73 | 1009.3 |
| 20260506185155 | 65 | 73 | 4.3 | 14.8 | 0.00 | 0.00 | 0.00 | 73 | 1009.4 |
| 20260506185059 | 65 | 10 | 1.7 | 7.8 | 0.00 | 0.00 | 0.00 | 73 | 1009.3 |
| 20260506185022 | 65 | 89 | 1.7 | 7.8 | 0.00 | 0.00 | 0.00 | 73 | 1009.4 |
| 20260506184904 | 65 | 69 | 2.6 | 7.8 | 0.00 | 0.00 | 0.00 | 73 | 1009.3 |
| 20260506184828 | 65 | 33 | 2.6 | 7.8 | 0.00 | 0.00 | 0.00 | 73 | 1009.3 |
| 20260506184711 | 65 | 345 | 1.7 | 7.8 | 0.00 | 0.00 | 0.00 | 73 | 1009.2 |
| 20260506184636 | 65 | 331 | 1.7 | 11.3 | 0.00 | 0.00 | 0.00 | 73 | 1009.2 |
| 20260506184501 | 65 | 45 | 1.7 | 11.3 | 0.00 | 0.00 | 0.00 | 73 | 1009.3 |
| 20260506184426 | 65 | 34 | 1.7 | 11.3 | 0.00 | 0.00 | 0.00 | 73 | 1009.3 |
| 20260506184308 | 65 | 73 | 0.9 | 11.3 | 0.00 | 0.00 | 0.00 | 73 | 1009.3 |
| 20260506184212 | 65 | 62 | 1.7 | 11.3 | 0.00 | 0.00 | 0.00 | 73 | 1009.3 |
| 20260506184055 | 65 | 44 | 1.7 | 11.3 | 0.00 | 0.00 | 0.00 | 73 | 1009.4 |
| 20260506184018 | 65 | 10 | 2.6 | 11.3 | 0.00 | 0.00 | 0.00 | 73 | 1009.4 |
| 20260506183900 | 66 | 33 | 5.2 | 11.3 | 0.00 | 0.00 | 0.00 | 72 | 1009.4 |
| 20260506183808 | 66 | 29 | 3.5 | 12.2 | 0.00 | 0.00 | 0.00 | 72 | 1009.3 |
| 20260506183711 | 66 | 340 | 1.7 | 11.3 | 0.00 | 0.00 | 0.00 | 73 | 1009.4 |
| 20260506183556 | 66 | 18 | 3.5 | 11.3 | 0.00 | 0.00 | 0.00 | 72 | 1009.4 |
| 20260506183458 | 66 | 29 | 3.5 | 11.3 | 0.00 | 0.00 | 0.00 | 72 | 1009.4 |
| 20260506183402 | 66 | 1 | 2.6 | 8.7 | 0.00 | 0.00 | 0.00 | 72 | 1009.4 |
| 20260506183305 | 66 | 39 | 2.6 | 8.7 | 0.00 | 0.00 | 0.00 | 72 | 1009.5 |
| 20260506183213 | 66 | 7 | 1.7 | 10.4 | 0.00 | 0.00 | 0.00 | 72 | 1009.4 |
| 20260506183117 | 66 | 20 | 2.6 | 11.3 | 0.00 | 0.00 | 0.00 | 72 | 1009.4 |
| 20260506183018 | 66 | 15 | 3.5 | 11.3 | 0.00 | 0.00 | 0.00 | 72 | 1009.5 |
| 20260506182921 | 66 | 44 | 4.3 | 11.3 | 0.00 | 0.00 | 0.00 | 72 | 1009.5 |
| 20260506182804 | 66 | 1 | 3.5 | 11.3 | 0.00 | 0.00 | 0.00 | 72 | 1009.6 |
| 20260506182707 | 66 | 40 | 1.7 | 11.3 | 0.00 | 0.00 | 0.00 | 72 | 1009.6 |
| 20260506182612 | 66 | 115 | 1.7 | 11.3 | 0.00 | 0.00 | 0.00 | 72 | 1009.5 |
| 20260506182518 | 66 | 76 | 4.3 | 11.3 | 0.00 | 0.00 | 0.00 | 71 | 1009.6 |
| 20260506182401 | 66 | 64 | 6.1 | 11.3 | 0.00 | 0.00 | 0.00 | 71 | 1009.6 |
| 20260506182306 | 66 | 334 | 6.1 | 17.4 | 0.00 | 0.00 | 0.00 | 71 | 1009.6 |
| 20260506182208 | 66 | 28 | 4.3 | 17.4 | 0.00 | 0.00 | 0.00 | 71 | 1009.5 |
| 20260506182132 | 66 | 356 | 4.3 | 17.4 | 0.00 | 0.00 | 0.00 | 71 | 1009.6 |
| 20260506182013 | 66 | 333 | 4.3 | 17.4 | 0.00 | 0.00 | 0.00 | 71 | 1009.6 |
| 20260506181916 | 66 | 349 | 5.2 | 17.4 | 0.00 | 0.00 | 0.00 | 71 | 1009.6 |
| 20260506181803 | 66 | 71 | 5.2 | 17.4 | 0.00 | 0.00 | 0.00 | 71 | 1009.5 |
| 20260506181706 | 66 | 329 | 5.2 | 17.4 | 0.00 | 0.00 | 0.00 | 71 | 1009.5 |
| 20260506181610 | 66 | 342 | 7.0 | 17.4 | 0.00 | 0.00 | 0.00 | 70 | 1009.5 |
| 20260506181513 | 66 | 1 | 8.7 | 17.4 | 0.00 | 0.00 | 0.00 | 70 | 1009.5 |
| 20260506181356 | 66 | 349 | 8.7 | 19.1 | 0.00 | 0.00 | 0.00 | 70 | 1009.5 |
| 20260506181300 | 66 | 338 | 5.2 | 19.1 | 0.00 | 0.00 | 0.00 | 70 | 1009.4 |
| 20260506181207 | 66 | 8 | 3.5 | 19.1 | 0.00 | 0.00 | 0.00 | 70 | 1009.5 |
| 20260506181131 | 67 | 323 | 2.6 | 19.1 | 0.00 | 0.00 | 0.00 | 70 | 1009.6 |
| 20260506181033 | 67 | 337 | 3.5 | 19.1 | 0.00 | 0.00 | 0.00 | 70 | 1009.5 |
| 20260506180915 | 67 | 313 | 5.2 | 19.1 | 0.00 | 0.00 | 0.00 | 70 | 1009.6 |
| 20260506180757 | 67 | 25 | 7.0 | 19.1 | 0.00 | 0.00 | 0.00 | 69 | 1009.6 |
| 20260506180701 | 67 | 359 | 7.8 | 19.1 | 0.00 | 0.00 | 0.00 | 69 | 1009.5 |
| 20260506180605 | 67 | 340 | 9.6 | 20.9 | 0.00 | 0.00 | 0.00 | 69 | 1009.5 |
| 20260506180506 | 67 | 54 | 6.1 | 17.4 | 0.00 | 0.00 | 0.00 | 69 | 1009.5 |
| 20260506180414 | 67 | 18 | 3.5 | 19.1 | 0.00 | 0.00 | 0.00 | 69 | 1009.5 |
| 20260506180257 | 67 | 58 | 0.9 | 19.1 | 0.00 | 0.00 | 0.00 | 69 | 1009.6 |
| 20260506180221 | 67 | 22 | 4.3 | 19.1 | 0.00 | 0.00 | 0.00 | 69 | 1009.7 |
| 20260506180115 | 67 | 47 | 6.1 | 19.1 | 0.00 | 0.00 | 0.00 | 69 | 1009.6 |
| 20260506175959 | 67 | 356 | 6.1 | 19.1 | 0.00 | 0.00 | 0.00 | 68 | 1009.7 |
| 20260506175902 | 68 | 295 | 5.2 | 19.1 | 0.00 | 0.00 | 0.00 | 68 | 1009.7 |
| 20260506175810 | 68 | 1 | 3.5 | 19.1 | 0.00 | 0.00 | 0.00 | 68 | 1009.8 |
| 20260506175713 | 68 | 79 | 6.1 | 19.1 | 0.00 | 0.00 | 0.00 | 68 | 1009.8 |
| 20260506175556 | 68 | 64 | 7.0 | 20.9 | 0.00 | 0.00 | 0.00 | 68 | 1009.6 |
| 20260506175459 | 68 | 357 | 5.2 | 12.2 | 0.00 | 0.00 | 0.00 | 67 | 1009.8 |
| 20260506175403 | 68 | 16 | 7.0 | 12.2 | 0.00 | 0.00 | 0.00 | 67 | 1009.7 |
| 20260506175306 | 68 | 345 | 6.1 | 16.5 | 0.00 | 0.00 | 0.00 | 67 | 1009.8 |
| 20260506175213 | 68 | 22 | 4.3 | 16.5 | 0.00 | 0.00 | 0.00 | 67 | 1009.8 |
| 20260506175057 | 68 | 47 | 2.6 | 16.5 | 0.00 | 0.00 | 0.00 | 67 | 1009.9 |
| 20260506174959 | 68 | 50 | 1.7 | 16.5 | 0.00 | 0.00 | 0.00 | 68 | 1009.8 |
| 20260506174903 | 68 | 22 | 1.7 | 16.5 | 0.00 | 0.00 | 0.00 | 68 | 1009.8 |
| 20260506174806 | 68 | 39 | 0.9 | 16.5 | 0.00 | 0.00 | 0.00 | 68 | 1009.8 |
| 20260506174710 | 68 | 5 | 2.6 | 16.5 | 0.00 | 0.00 | 0.00 | 67 | 1009.9 |
| 20260506174557 | 68 | 34 | 6.1 | 16.5 | 0.00 | 0.00 | 0.00 | 67 | 1009.8 |
| 20260506174500 | 68 | 21 | 5.2 | 16.5 | 0.00 | 0.00 | 0.00 | 67 | 1009.8 |
| 20260506174403 | 69 | 355 | 5.2 | 12.2 | 0.00 | 0.00 | 0.00 | 66 | 1009.8 |
| 20260506174307 | 69 | 46 | 5.2 | 12.2 | 0.00 | 0.00 | 0.00 | 66 | 1009.7 |
| 20260506174210 | 69 | 321 | 4.3 | 13.9 | 0.00 | 0.00 | 0.00 | 66 | 1009.9 |
| 20260506174114 | 69 | 345 | 4.3 | 13.9 | 0.00 | 0.00 | 0.00 | 66 | 1009.9 |
| 20260506174000 | 69 | 3 | 5.2 | 13.9 | 0.00 | 0.00 | 0.00 | 66 | 1010.0 |
| 20260506173904 | 69 | 11 | 5.2 | 13.9 | 0.00 | 0.00 | 0.00 | 66 | 1010.0 |
| 20260506173807 | 69 | 52 | 4.3 | 13.9 | 0.00 | 0.00 | 0.00 | 66 | 1010.0 |
| 20260506173710 | 69 | 134 | 6.1 | 13.9 | 0.00 | 0.00 | 0.00 | 65 | 1010.0 |
| 20260506173614 | 69 | 37 | 5.2 | 13.9 | 0.00 | 0.00 | 0.00 | 65 | 1009.9 |
| 20260506173517 | 69 | 76 | 4.3 | 13.9 | 0.00 | 0.00 | 0.00 | 66 | 1009.9 |
| 20260506173403 | 69 | 348 | 3.5 | 13.9 | 0.00 | 0.00 | 0.00 | 66 | 1010.0 |
| 20260506173327 | 69 | 41 | 2.6 | 12.2 | 0.00 | 0.00 | 0.00 | 66 | 1010.1 |
| 20260506173210 | 69 | 18 | 4.3 | 12.2 | 0.00 | 0.00 | 0.00 | 66 | 1010.1 |
| 20260506173113 | 69 | 328 | 6.1 | 12.2 | 0.00 | 0.00 | 0.00 | 65 | 1010.1 |
| 20260506172955 | 69 | 30 | 4.3 | 14.8 | 0.00 | 0.00 | 0.00 | 66 | 1010.1 |
| 20260506172919 | 69 | 345 | 3.5 | 20.0 | 0.00 | 0.00 | 0.00 | 66 | 1010.0 |
| 20260506172822 | 69 | 12 | 5.2 | 20.0 | 0.00 | 0.00 | 0.00 | 65 | 1010.1 |
| 20260506172704 | 69 | 321 | 3.5 | 24.3 | 0.00 | 0.00 | 0.00 | 65 | 1010.1 |
| 20260506172612 | 69 | 354 | 1.7 | 24.3 | 0.00 | 0.00 | 0.00 | 66 | 1010.2 |
| 20260506172454 | 69 | 47 | 2.6 | 24.3 | 0.00 | 0.00 | 0.00 | 66 | 1010.1 |
| 20260506172358 | 69 | 316 | 1.7 | 24.3 | 0.00 | 0.00 | 0.00 | 66 | 1010.2 |
| 20260506172305 | 69 | 40 | 2.6 | 24.3 | 0.00 | 0.00 | 0.00 | 66 | 1010.1 |
| 20260506172225 | 69 | 45 | 6.1 | 24.3 | 0.00 | 0.00 | 0.00 | 65 | 1010.1 |
| 20260506172108 | 70 | 333 | 7.8 | 24.3 | 0.00 | 0.00 | 0.00 | 65 | 1010.1 |
| 20260506171954 | 70 | 60 | 6.1 | 24.3 | 0.00 | 0.00 | 0.00 | 65 | 1010.1 |
| 20260506171918 | 70 | 89 | 4.3 | 26.1 | 0.00 | 0.00 | 0.00 | 65 | 1009.9 |
| 20260506171801 | 70 | 322 | 5.2 | 11.3 | 0.00 | 0.00 | 0.00 | 65 | 1010.0 |
| 20260506171704 | 70 | 1 | 5.2 | 13.0 | 0.00 | 0.00 | 0.00 | 65 | 1010.0 |
| 20260506171607 | 70 | 6 | 5.2 | 13.9 | 0.00 | 0.00 | 0.00 | 65 | 1010.0 |
| 20260506171510 | 70 | 9 | 5.2 | 13.9 | 0.00 | 0.00 | 0.00 | 66 | 1010.0 |
| 20260506171356 | 70 | 14 | 3.5 | 13.9 | 0.00 | 0.00 | 0.00 | 65 | 1010.0 |
| 20260506171300 | 70 | 34 | 4.3 | 15.6 | 0.00 | 0.00 | 0.00 | 65 | 1009.9 |
| 20260506171203 | 70 | 13 | 4.3 | 15.6 | 0.00 | 0.00 | 0.00 | 65 | 1009.9 |
| 20260506171107 | 70 | 49 | 4.3 | 15.6 | 0.00 | 0.00 | 0.00 | 66 | 1009.9 |
| 20260506171029 | 70 | 16 | 5.2 | 15.6 | 0.00 | 0.00 | 0.00 | 65 | 1009.9 |
| 20260506170912 | 70 | 62 | 6.1 | 15.6 | 0.00 | 0.00 | 0.00 | 65 | 1009.9 |
| 20260506170755 | 70 | 359 | 7.0 | 15.6 | 0.00 | 0.00 | 0.00 | 65 | 1009.8 |
| 20260506170703 | 70 | 349 | 7.0 | 15.6 | 0.00 | 0.00 | 0.00 | 65 | 1009.9 |
| 20260506170608 | 70 | 40 | 5.2 | 15.6 | 0.00 | 0.00 | 0.00 | 65 | 1009.9 |
| 20260506170510 | 70 | 57 | 7.0 | 15.6 | 0.00 | 0.00 | 0.00 | 65 | 1009.8 |
| 20260506170413 | 70 | 340 | 7.0 | 15.6 | 0.00 | 0.00 | 0.00 | 65 | 1009.9 |
| 20260506170257 | 70 | 56 | 3.5 | 14.8 | 0.00 | 0.00 | 0.00 | 65 | 1009.8 |
| 20260506170200 | 70 | 336 | 5.2 | 14.8 | 0.00 | 0.00 | 0.00 | 65 | 1009.9 |
| 20260506170119 | 70 | 75 | 6.1 | 14.8 | 0.00 | 0.00 | 0.00 | 65 | 1009.8 |
| 20260506170024 | 70 | 23 | 4.3 | 12.2 | 0.00 | 0.00 | 0.00 | 65 | 1009.9 |
| 20260506165926 | 70 | 360 | 5.2 | 12.2 | 0.00 | 0.00 | 0.00 | 66 | 1010.0 |
| 20260506165809 | 70 | 314 | 2.6 | 16.5 | 0.00 | 0.00 | 0.00 | 66 | 1010.0 |
| 20260506165733 | 70 | 44 | 0.9 | 16.5 | 0.00 | 0.00 | 0.00 | 67 | 1010.0 |
| 20260506165555 | 70 | 40 | 2.6 | 16.5 | 0.00 | 0.00 | 0.00 | 67 | 1010.0 |
| 20260506165457 | 69 | 16 | 3.5 | 16.5 | 0.00 | 0.00 | 0.00 | 66 | 1010.0 |
| 20260506165405 | 69 | 33 | 3.5 | 16.5 | 0.00 | 0.00 | 0.00 | 66 | 1010.0 |
| 20260506165309 | 69 | 84 | 3.5 | 16.5 | 0.00 | 0.00 | 0.00 | 67 | 1010.0 |
| 20260506165212 | 69 | 40 | 4.3 | 16.5 | 0.00 | 0.00 | 0.00 | 66 | 1010.1 |
| 20260506165057 | 69 | 13 | 6.1 | 16.5 | 0.00 | 0.00 | 0.00 | 66 | 1010.0 |
| 20260506164959 | 69 | 52 | 4.3 | 16.5 | 0.00 | 0.00 | 0.00 | 66 | 1010.1 |
| 20260506164902 | 69 | 27 | 4.3 | 16.5 | 0.00 | 0.00 | 0.00 | 67 | 1010.1 |
| 20260506164825 | 69 | 60 | 4.3 | 16.5 | 0.00 | 0.00 | 0.00 | 67 | 1010.2 |
| 20260506164732 | 69 | 18 | 7.0 | 16.5 | 0.00 | 0.00 | 0.00 | 67 | 1010.1 |
| 20260506164556 | 69 | 356 | 7.0 | 16.5 | 0.00 | 0.00 | 0.00 | 67 | 1010.1 |
| 20260506164458 | 69 | 18 | 3.5 | 18.2 | 0.00 | 0.00 | 0.00 | 67 | 1010.2 |
| 20260506164401 | 69 | 342 | 4.3 | 18.2 | 0.00 | 0.00 | 0.00 | 68 | 1010.3 |
| 20260506164305 | 69 | 50 | 3.5 | 18.2 | 0.00 | 0.00 | 0.00 | 67 | 1010.2 |
| 20260506164208 | 69 | 336 | 2.6 | 18.2 | 0.00 | 0.00 | 0.00 | 68 | 1010.4 |
| 20260506164056 | 69 | 34 | 3.5 | 18.2 | 0.00 | 0.00 | 0.00 | 67 | 1010.4 |
| 20260506163958 | 69 | 312 | 7.0 | 18.2 | 0.00 | 0.00 | 0.00 | 67 | 1010.4 |
| 20260506163902 | 69 | 329 | 7.8 | 18.2 | 0.00 | 0.00 | 0.00 | 66 | 1010.4 |
| 20260506163805 | 69 | 337 | 7.0 | 18.2 | 0.00 | 0.00 | 0.00 | 67 | 1010.3 |
| 20260506163709 | 69 | 349 | 7.0 | 19.1 | 0.00 | 0.00 | 0.00 | 67 | 1010.4 |
| 20260506163612 | 69 | 356 | 6.1 | 13.9 | 0.00 | 0.00 | 0.00 | 67 | 1010.4 |
| 20260506163459 | 69 | 345 | 5.2 | 13.9 | 0.00 | 0.00 | 0.00 | 66 | 1010.4 |
| 20260506163402 | 69 | 353 | 5.2 | 13.0 | 0.00 | 0.00 | 0.00 | 66 | 1010.4 |
| 20260506163326 | 69 | 329 | 7.0 | 12.2 | 0.00 | 0.00 | 0.00 | 67 | 1010.4 |
| 20260506163208 | 70 | 336 | 4.3 | 12.2 | 0.00 | 0.00 | 0.00 | 67 | 1010.4 |
| 20260506163112 | 69 | 23 | 1.7 | 13.0 | 0.00 | 0.00 | 0.00 | 67 | 1010.5 |
| 20260506162954 | 69 | 336 | 0.9 | 18.2 | 0.00 | 0.00 | 0.00 | 67 | 1010.5 |
| 20260506162918 | 69 | 43 | 1.7 | 18.2 | 0.00 | 0.00 | 0.00 | 68 | 1010.5 |
| 20260506162804 | 69 | 34 | 2.6 | 18.2 | 0.00 | 0.00 | 0.00 | 67 | 1010.5 |
| 20260506162708 | 69 | 39 | 1.7 | 18.2 | 0.00 | 0.00 | 0.00 | 67 | 1010.6 |
| 20260506162612 | 69 | 74 | 2.6 | 18.2 | 0.00 | 0.00 | 0.00 | 67 | 1010.5 |
| 20260506162515 | 69 | 81 | 5.2 | 18.2 | 0.00 | 0.00 | 0.00 | 67 | 1010.6 |
| 20260506162358 | 69 | 20 | 6.1 | 18.2 | 0.00 | 0.00 | 0.00 | 67 | 1010.6 |
| 20260506162301 | 69 | 341 | 6.1 | 18.2 | 0.00 | 0.00 | 0.00 | 66 | 1010.5 |
| 20260506162209 | 69 | 330 | 4.3 | 18.2 | 0.00 | 0.00 | 0.00 | 67 | 1010.6 |
| 20260506162112 | 69 | 82 | 1.7 | 13.0 | 0.00 | 0.00 | 0.00 | 68 | 1010.6 |
| 20260506161954 | 69 | 34 | 2.6 | 13.0 | 0.00 | 0.00 | 0.00 | 68 | 1010.6 |
| 20260506161858 | 69 | 20 | 3.5 | 13.9 | 0.00 | 0.00 | 0.00 | 68 | 1010.6 |
| 20260506161801 | 69 | 19 | 2.6 | 13.9 | 0.00 | 0.00 | 0.00 | 68 | 1010.6 |
| 20260506161705 | 68 | 350 | 2.6 | 13.9 | 0.00 | 0.00 | 0.00 | 69 | 1010.5 |
| 20260506161613 | 68 | 1 | 4.3 | 13.9 | 0.00 | 0.00 | 0.00 | 68 | 1010.5 |
| 20260506161456 | 68 | 33 | 3.5 | 13.9 | 0.00 | 0.00 | 0.00 | 68 | 1010.6 |
| 20260506161419 | 68 | 32 | 3.5 | 13.9 | 0.00 | 0.00 | 0.00 | 68 | 1010.6 |
| 20260506161302 | 68 | 333 | 5.2 | 13.9 | 0.00 | 0.00 | 0.00 | 68 | 1010.7 |
| 20260506161205 | 68 | 49 | 8.7 | 13.9 | 0.00 | 0.00 | 0.00 | 68 | 1010.7 |
| 20260506161110 | 69 | 22 | 7.8 | 13.9 | 0.00 | 0.00 | 0.00 | 68 | 1010.7 |
| 20260506160957 | 69 | 40 | 4.3 | 13.0 | 0.00 | 0.00 | 0.00 | 68 | 1010.7 |
| 20260506160900 | 69 | 81 | 4.3 | 13.0 | 0.00 | 0.00 | 0.00 | 68 | 1010.7 |
| 20260506160802 | 69 | 350 | 3.5 | 16.5 | 0.00 | 0.00 | 0.00 | 68 | 1010.7 |
| 20260506160706 | 69 | 316 | 1.7 | 16.5 | 0.00 | 0.00 | 0.00 | 69 | 1010.7 |
| 20260506160631 | 69 | 50 | 4.3 | 16.5 | 0.00 | 0.00 | 0.00 | 68 | 1010.7 |
| 20260506160512 | 69 | 42 | 6.1 | 16.5 | 0.00 | 0.00 | 0.00 | 68 | 1010.6 |
| 20260506160355 | 69 | 354 | 4.3 | 16.5 | 0.00 | 0.00 | 0.00 | 68 | 1010.8 |
| 20260506160303 | 69 | 69 | 3.5 | 16.5 | 0.00 | 0.00 | 0.00 | 67 | 1010.7 |
| 20260506160206 | 69 | 66 | 5.2 | 16.5 | 0.00 | 0.00 | 0.00 | 68 | 1010.8 |
| 20260506160122 | 69 | 353 | 7.8 | 16.5 | 0.00 | 0.00 | 0.00 | 67 | 1010.8 |
| 20260506160006 | 69 | 14 | 8.7 | 16.5 | 0.00 | 0.00 | 0.00 | 67 | 1010.8 |
| 20260506155910 | 69 | 13 | 6.1 | 16.5 | 0.00 | 0.00 | 0.00 | 67 | 1010.8 |
| 20260506155813 | 69 | 13 | 2.6 | 12.2 | 0.00 | 0.00 | 0.00 | 67 | 1010.9 |
| 20260506155700 | 69 | 335 | 3.5 | 12.2 | 0.00 | 0.00 | 0.00 | 67 | 1010.8 |
| 20260506155605 | 69 | 1 | 4.3 | 12.2 | 0.00 | 0.00 | 0.00 | 67 | 1010.9 |
| 20260506155507 | 69 | 330 | 4.3 | 14.8 | 0.00 | 0.00 | 0.00 | 67 | 1010.9 |
| 20260506155411 | 69 | 47 | 5.2 | 14.8 | 0.00 | 0.00 | 0.00 | 68 | 1010.8 |
| 20260506155254 | 69 | 336 | 5.2 | 14.8 | 0.00 | 0.00 | 0.00 | 67 | 1010.9 |
| 20260506155158 | 69 | 30 | 5.2 | 14.8 | 0.00 | 0.00 | 0.00 | 67 | 1010.9 |
| 20260506155105 | 69 | 23 | 5.2 | 14.8 | 0.00 | 0.00 | 0.00 | 67 | 1010.9 |
| 20260506155007 | 69 | 44 | 6.1 | 14.8 | 0.00 | 0.00 | 0.00 | 67 | 1011.0 |
| 20260506154910 | 69 | 328 | 6.1 | 14.8 | 0.00 | 0.00 | 0.00 | 67 | 1011.0 |
| 20260506154813 | 69 | 343 | 7.0 | 14.8 | 0.00 | 0.00 | 0.00 | 67 | 1011.0 |
| 20260506154657 | 69 | 15 | 5.2 | 14.8 | 0.00 | 0.00 | 0.00 | 68 | 1010.9 |
| 20260506154600 | 69 | 47 | 2.6 | 11.3 | 0.00 | 0.00 | 0.00 | 67 | 1011.0 |
| 20260506154507 | 69 | 33 | 1.7 | 11.3 | 0.00 | 0.00 | 0.00 | 68 | 1011.0 |
| 20260506154411 | 69 | 33 | 1.7 | 11.3 | 0.00 | 0.00 | 0.00 | 68 | 1011.0 |
| 20260506154314 | 69 | 49 | 5.2 | 11.3 | 0.00 | 0.00 | 0.00 | 67 | 1011.1 |
| 20260506154217 | 69 | 18 | 5.2 | 11.3 | 0.00 | 0.00 | 0.00 | 67 | 1011.0 |
| 20260506154120 | 69 | 72 | 3.5 | 11.3 | 0.00 | 0.00 | 0.00 | 67 | 1011.1 |
| 20260506154002 | 69 | 51 | 2.6 | 11.3 | 0.00 | 0.00 | 0.00 | 67 | 1011.2 |
| 20260506153905 | 69 | 335 | 3.5 | 11.3 | 0.00 | 0.00 | 0.00 | 67 | 1011.1 |
| 20260506153813 | 69 | 345 | 5.2 | 12.2 | 0.00 | 0.00 | 0.00 | 66 | 1011.1 |
| 20260506153717 | 69 | 323 | 5.2 | 12.2 | 0.00 | 0.00 | 0.00 | 66 | 1011.1 |
| 20260506153619 | 69 | 214 | 2.6 | 12.2 | 0.00 | 0.00 | 0.00 | 67 | 1011.2 |
| 20260506153501 | 69 | 53 | 3.5 | 12.2 | 0.00 | 0.00 | 0.00 | 66 | 1011.2 |
| 20260506153404 | 69 | 58 | 4.3 | 12.2 | 0.00 | 0.00 | 0.00 | 66 | 1011.2 |
| 20260506153328 | 69 | 345 | 4.3 | 12.2 | 0.00 | 0.00 | 0.00 | 66 | 1011.2 |
| 20260506153210 | 69 | 284 | 3.5 | 12.2 | 0.00 | 0.00 | 0.00 | 67 | 1011.1 |
| 20260506153058 | 69 | 321 | 4.3 | 13.9 | 0.00 | 0.00 | 0.00 | 68 | 1011.2 |
| 20260506153000 | 69 | 350 | 6.1 | 13.9 | 0.00 | 0.00 | 0.00 | 67 | 1011.2 |
| 20260506152904 | 69 | 352 | 4.3 | 13.9 | 0.00 | 0.00 | 0.00 | 67 | 1011.2 |
| 20260506152828 | 69 | 355 | 4.3 | 13.9 | 0.00 | 0.00 | 0.00 | 67 | 1011.3 |
| 20260506152710 | 69 | 356 | 5.2 | 14.8 | 0.00 | 0.00 | 0.00 | 67 | 1011.3 |
| 20260506152615 | 69 | 345 | 6.1 | 14.8 | 0.00 | 0.00 | 0.00 | 67 | 1011.4 |
| 20260506152501 | 69 | 39 | 6.1 | 14.8 | 0.00 | 0.00 | 0.00 | 67 | 1011.4 |
| 20260506152404 | 69 | 76 | 5.2 | 14.8 | 0.00 | 0.00 | 0.00 | 68 | 1011.3 |
| 20260506152308 | 69 | 321 | 3.5 | 14.8 | 0.00 | 0.00 | 0.00 | 68 | 1011.4 |
| 20260506152211 | 69 | 74 | 2.6 | 14.8 | 0.00 | 0.00 | 0.00 | 68 | 1011.4 |
| 20260506152056 | 68 | 9 | 5.2 | 14.8 | 0.00 | 0.00 | 0.00 | 68 | 1011.3 |
| 20260506151958 | 68 | 33 | 6.1 | 14.8 | 0.00 | 0.00 | 0.00 | 68 | 1011.3 |
| 20260506151922 | 68 | 106 | 6.1 | 14.8 | 0.00 | 0.00 | 0.00 | 68 | 1011.3 |
| 20260506151828 | 68 | 40 | 6.1 | 13.9 | 0.00 | 0.00 | 0.00 | 68 | 1011.3 |
| 20260506151711 | 68 | 319 | 5.2 | 13.9 | 0.00 | 0.00 | 0.00 | 68 | 1011.3 |
| 20260506151614 | 68 | 333 | 4.3 | 11.3 | 0.00 | 0.00 | 0.00 | 68 | 1011.4 |
| 20260506151456 | 68 | 357 | 6.1 | 12.2 | 0.00 | 0.00 | 0.00 | 68 | 1011.4 |
| 20260506151400 | 68 | 100 | 5.2 | 12.2 | 0.00 | 0.00 | 0.00 | 68 | 1011.5 |
| 20260506151303 | 68 | 15 | 4.3 | 12.2 | 0.00 | 0.00 | 0.00 | 68 | 1011.5 |
| 20260506151211 | 68 | 68 | 5.2 | 12.2 | 0.00 | 0.00 | 0.00 | 68 | 1011.4 |
| 20260506151136 | 68 | 51 | 6.1 | 12.2 | 0.00 | 0.00 | 0.00 | 68 | 1011.4 |
| 20260506150957 | 68 | 81 | 4.3 | 12.2 | 0.00 | 0.00 | 0.00 | 69 | 1011.5 |
| 20260506150900 | 68 | 30 | 3.5 | 12.2 | 0.00 | 0.00 | 0.00 | 69 | 1011.6 |
| 20260506150804 | 68 | 72 | 5.2 | 12.2 | 0.00 | 0.00 | 0.00 | 68 | 1011.5 |
| 20260506150707 | 68 | 11 | 6.1 | 12.2 | 0.00 | 0.00 | 0.00 | 68 | 1011.5 |
| 20260506150555 | 68 | 323 | 5.2 | 11.3 | 0.00 | 0.00 | 0.00 | 68 | 1011.4 |
| 20260506150457 | 68 | 293 | 5.2 | 12.2 | 0.00 | 0.00 | 0.00 | 68 | 1011.5 |
| 20260506150401 | 68 | 22 | 2.6 | 15.6 | 0.00 | 0.00 | 0.00 | 68 | 1011.6 |
| 20260506150305 | 68 | 1 | 3.5 | 15.6 | 0.00 | 0.00 | 0.00 | 69 | 1011.6 |
| 20260506150208 | 68 | 45 | 3.5 | 15.6 | 0.00 | 0.00 | 0.00 | 68 | 1011.5 |
| 20260506150123 | 68 | 16 | 4.3 | 15.6 | 0.00 | 0.00 | 0.00 | 69 | 1011.6 |
| 20260506150008 | 68 | 63 | 4.3 | 15.6 | 0.00 | 0.00 | 0.00 | 68 | 1011.5 |
| 20260506145855 | 68 | 23 | 2.6 | 15.6 | 0.00 | 0.00 | 0.00 | 68 | 1011.4 |
| 20260506145759 | 68 | 65 | 2.6 | 15.6 | 0.00 | 0.00 | 0.00 | 68 | 1011.4 |
| 20260506145702 | 68 | 15 | 4.3 | 15.6 | 0.00 | 0.00 | 0.00 | 69 | 1011.6 |
| 20260506145626 | 68 | 19 | 5.2 | 15.6 | 0.00 | 0.00 | 0.00 | 68 | 1011.4 |
| 20260506145507 | 68 | 5 | 7.0 | 16.5 | 0.00 | 0.00 | 0.00 | 68 | 1011.5 |
| 20260506145411 | 68 | 96 | 7.8 | 14.8 | 0.00 | 0.00 | 0.00 | 68 | 1011.4 |
| 20260506145258 | 68 | 66 | 5.2 | 10.4 | 0.00 | 0.00 | 0.00 | 68 | 1011.5 |
| 20260506145202 | 68 | 19 | 3.5 | 16.5 | 0.00 | 0.00 | 0.00 | 68 | 1011.5 |
| 20260506145105 | 68 | 37 | 3.5 | 16.5 | 0.00 | 0.00 | 0.00 | 68 | 1011.5 |
| 20260506145008 | 68 | 53 | 3.5 | 16.5 | 0.00 | 0.00 | 0.00 | 69 | 1011.5 |
| 20260506144931 | 68 | 316 | 4.3 | 16.5 | 0.00 | 0.00 | 0.00 | 68 | 1011.6 |
| 20260506144813 | 68 | 80 | 5.2 | 16.5 | 0.00 | 0.00 | 0.00 | 69 | 1011.5 |
| 20260506144717 | 68 | 328 | 6.1 | 16.5 | 0.00 | 0.00 | 0.00 | 68 | 1011.3 |
| 20260506144604 | 68 | 349 | 4.3 | 16.5 | 0.00 | 0.00 | 0.00 | 68 | 1011.4 |
| 20260506144507 | 68 | 330 | 4.3 | 16.5 | 0.00 | 0.00 | 0.00 | 69 | 1011.3 |
| 20260506144410 | 68 | 73 | 7.0 | 16.5 | 0.00 | 0.00 | 0.00 | 68 | 1011.4 |
| 20260506144314 | 68 | 54 | 6.1 | 17.4 | 0.00 | 0.00 | 0.00 | 68 | 1011.4 |
| 20260506144157 | 68 | 64 | 5.2 | 17.4 | 0.00 | 0.00 | 0.00 | 68 | 1011.3 |
| 20260506144100 | 68 | 359 | 4.3 | 17.4 | 0.00 | 0.00 | 0.00 | 68 | 1011.3 |
| 20260506144007 | 68 | 338 | 3.5 | 17.4 | 0.00 | 0.00 | 0.00 | 68 | 1011.3 |
| 20260506143930 | 68 | 26 | 2.6 | 17.4 | 0.00 | 0.00 | 0.00 | 68 | 1011.3 |
| 20260506143833 | 68 | 6 | 3.5 | 17.4 | 0.00 | 0.00 | 0.00 | 69 | 1011.3 |
| 20260506143656 | 68 | 171 | 6.1 | 17.4 | 0.00 | 0.00 | 0.00 | 68 | 1011.3 |
| 20260506143559 | 68 | 8 | 7.0 | 17.4 | 0.00 | 0.00 | 0.00 | 68 | 1011.4 |
| 20260506143522 | 68 | 352 | 4.3 | 19.1 | 0.00 | 0.00 | 0.00 | 68 | 1011.3 |
| 20260506143404 | 68 | 18 | 0.9 | 12.2 | 0.00 | 0.00 | 0.00 | 69 | 1011.4 |
| 20260506143311 | 68 | 79 | 3.5 | 12.2 | 0.00 | 0.00 | 0.00 | 68 | 1011.3 |
| 20260506143154 | 68 | 25 | 5.2 | 12.2 | 0.00 | 0.00 | 0.00 | 68 | 1011.1 |
| 20260506143059 | 68 | 345 | 2.6 | 12.2 | 0.00 | 0.00 | 0.00 | 69 | 1011.3 |
| 20260506143001 | 68 | 360 | 0.0 | 9.6 | 0.00 | 0.00 | 0.00 | 69 | 1011.2 |
| 20260506142905 | 68 | 47 | 0.9 | 9.6 | 0.00 | 0.00 | 0.00 | 69 | 1011.2 |
| 20260506142808 | 68 | 25 | 0.9 | 14.8 | 0.00 | 0.00 | 0.00 | 69 | 1011.2 |
| 20260506142716 | 68 | 56 | 2.6 | 14.8 | 0.00 | 0.00 | 0.00 | 69 | 1011.2 |
| 20260506142559 | 68 | 6 | 2.6 | 14.8 | 0.00 | 0.00 | 0.00 | 69 | 1011.1 |
| 20260506142501 | 68 | 347 | 3.5 | 14.8 | 0.00 | 0.00 | 0.00 | 70 | 1011.2 |
| 20260506142405 | 68 | 345 | 4.3 | 14.8 | 0.00 | 0.00 | 0.00 | 69 | 1011.1 |
| 20260506142308 | 68 | 51 | 3.5 | 14.8 | 0.00 | 0.00 | 0.00 | 69 | 1011.2 |
| 20260506142212 | 68 | 49 | 1.7 | 14.8 | 0.00 | 0.00 | 0.00 | 69 | 1011.2 |
| 20260506142059 | 68 | 25 | 4.3 | 14.8 | 0.00 | 0.00 | 0.00 | 70 | 1011.3 |
| 20260506142001 | 68 | 22 | 5.2 | 15.6 | 0.00 | 0.00 | 0.00 | 69 | 1011.1 |
| 20260506141905 | 68 | 23 | 2.6 | 15.6 | 0.00 | 0.00 | 0.00 | 70 | 1011.3 |
| 20260506141808 | 67 | 336 | 3.5 | 15.6 | 0.00 | 0.00 | 0.00 | 70 | 1011.3 |
| 20260506141712 | 67 | 41 | 3.5 | 16.5 | 0.00 | 0.00 | 0.00 | 70 | 1011.3 |
| 20260506141555 | 67 | 65 | 5.2 | 16.5 | 0.00 | 0.00 | 0.00 | 70 | 1011.3 |
| 20260506141502 | 67 | 89 | 5.2 | 16.5 | 0.00 | 0.00 | 0.00 | 70 | 1011.4 |
| 20260506141425 | 67 | 321 | 5.2 | 16.5 | 0.00 | 0.00 | 0.00 | 70 | 1011.5 |
| 20260506141308 | 67 | 41 | 7.0 | 16.5 | 0.00 | 0.00 | 0.00 | 70 | 1011.3 |
| 20260506141211 | 67 | 21 | 5.2 | 16.5 | 0.00 | 0.00 | 0.00 | 70 | 1011.5 |
| 20260506141135 | 67 | 295 | 4.3 | 16.5 | 0.00 | 0.00 | 0.00 | 70 | 1011.3 |
| 20260506140957 | 67 | 58 | 7.0 | 16.5 | 0.00 | 0.00 | 0.00 | 70 | 1011.4 |
| 20260506140920 | 67 | 33 | 6.1 | 14.8 | 0.00 | 0.00 | 0.00 | 70 | 1011.3 |
| 20260506140823 | 67 | 347 | 5.2 | 13.9 | 0.00 | 0.00 | 0.00 | 71 | 1011.4 |
| 20260506140710 | 67 | 28 | 2.6 | 13.9 | 0.00 | 0.00 | 0.00 | 71 | 1011.3 |
| 20260506140635 | 67 | 13 | 1.7 | 13.9 | 0.00 | 0.00 | 0.00 | 72 | 1011.2 |
| 20260506140456 | 67 | 6 | 4.3 | 13.9 | 0.00 | 0.00 | 0.00 | 72 | 1011.2 |
| 20260506140359 | 67 | 62 | 5.2 | 13.9 | 0.00 | 0.00 | 0.00 | 72 | 1011.2 |
| 20260506140303 | 67 | 33 | 4.3 | 13.9 | 0.00 | 0.00 | 0.00 | 72 | 1011.2 |
| 20260506140227 | 67 | 29 | 6.1 | 13.0 | 0.00 | 0.00 | 0.00 | 72 | 1011.3 |
| 20260506140120 | 67 | 36 | 7.0 | 13.0 | 0.00 | 0.00 | 0.00 | 71 | 1011.3 |
| 20260506140009 | 67 | 350 | 5.2 | 13.9 | 0.00 | 0.00 | 0.00 | 72 | 1011.5 |
| 20260506135912 | 67 | 355 | 3.5 | 12.2 | 0.00 | 0.00 | 0.00 | 72 | 1011.1 |
| 20260506135755 | 67 | 90 | 2.6 | 12.2 | 0.00 | 0.00 | 0.00 | 72 | 1011.3 |
| 20260506135659 | 67 | 333 | 3.5 | 12.2 | 0.00 | 0.00 | 0.00 | 72 | 1011.3 |
| 20260506135603 | 67 | 35 | 3.5 | 12.2 | 0.00 | 0.00 | 0.00 | 72 | 1011.3 |
| 20260506135506 | 67 | 349 | 2.6 | 12.2 | 0.00 | 0.00 | 0.00 | 73 | 1011.3 |
| 20260506135413 | 66 | 48 | 2.6 | 12.2 | 0.00 | 0.00 | 0.00 | 72 | 1011.3 |
| 20260506135257 | 66 | 338 | 6.1 | 12.2 | 0.00 | 0.00 | 0.00 | 72 | 1011.3 |
| 20260506135200 | 66 | 32 | 6.1 | 12.2 | 0.00 | 0.00 | 0.00 | 72 | 1011.2 |
| 20260506135104 | 66 | 354 | 5.2 | 13.0 | 0.00 | 0.00 | 0.00 | 72 | 1011.1 |
| 20260506135006 | 66 | 326 | 5.2 | 10.4 | 0.00 | 0.00 | 0.00 | 73 | 1011.2 |
| 20260506134910 | 66 | 356 | 7.0 | 10.4 | 0.00 | 0.00 | 0.00 | 72 | 1011.2 |
| 20260506134757 | 66 | 34 | 3.5 | 11.3 | 0.00 | 0.00 | 0.00 | 73 | 1011.3 |
| 20260506134701 | 66 | 47 | 1.7 | 10.4 | 0.00 | 0.00 | 0.00 | 73 | 1011.3 |
| 20260506134605 | 66 | 44 | 1.7 | 11.3 | 0.00 | 0.00 | 0.00 | 74 | 1011.3 |
| 20260506134507 | 66 | 36 | 4.3 | 11.3 | 0.00 | 0.00 | 0.00 | 73 | 1011.3 |
| 20260506134430 | 66 | 352 | 4.3 | 11.3 | 0.00 | 0.00 | 0.00 | 73 | 1011.3 |
| 20260506134313 | 66 | 49 | 3.5 | 11.3 | 0.00 | 0.00 | 0.00 | 73 | 1011.4 |
| 20260506134216 | 66 | 39 | 3.5 | 11.3 | 0.00 | 0.00 | 0.00 | 74 | 1011.4 |
| 20260506134123 | 66 | 33 | 4.3 | 11.3 | 0.00 | 0.00 | 0.00 | 73 | 1011.4 |
| 20260506134005 | 66 | 318 | 4.3 | 11.3 | 0.00 | 0.00 | 0.00 | 73 | 1011.4 |
| 20260506133908 | 66 | 20 | 6.1 | 11.3 | 0.00 | 0.00 | 0.00 | 73 | 1011.5 |
| 20260506133812 | 66 | 18 | 6.1 | 11.3 | 0.00 | 0.00 | 0.00 | 73 | 1011.6 |
| 20260506133655 | 66 | 45 | 2.6 | 11.3 | 0.00 | 0.00 | 0.00 | 73 | 1011.7 |
| 20260506133600 | 66 | 47 | 1.7 | 11.3 | 0.00 | 0.00 | 0.00 | 73 | 1011.7 |
| 20260506133507 | 66 | 356 | 3.5 | 11.3 | 0.00 | 0.00 | 0.00 | 73 | 1011.8 |
| 20260506133430 | 66 | 5 | 5.2 | 11.3 | 0.00 | 0.00 | 0.00 | 73 | 1011.9 |
| 20260506133313 | 66 | 16 | 5.2 | 11.3 | 0.00 | 0.00 | 0.00 | 73 | 1011.9 |
| 20260506133156 | 66 | 53 | 1.7 | 10.4 | 0.00 | 0.00 | 0.00 | 73 | 1011.9 |
| 20260506133059 | 66 | 349 | 2.6 | 10.4 | 0.00 | 0.00 | 0.00 | 74 | 1011.9 |
| 20260506133002 | 66 | 44 | 2.6 | 10.4 | 0.00 | 0.00 | 0.00 | 73 | 1012.0 |
| 20260506132906 | 66 | 6 | 2.6 | 10.4 | 0.00 | 0.00 | 0.00 | 74 | 1011.9 |
| 20260506132813 | 66 | 64 | 3.5 | 14.8 | 0.00 | 0.00 | 0.00 | 73 | 1012.0 |
| 20260506132656 | 66 | 349 | 2.6 | 14.8 | 0.00 | 0.00 | 0.00 | 74 | 1011.9 |
| 20260506132601 | 66 | 58 | 4.3 | 14.8 | 0.00 | 0.00 | 0.00 | 75 | 1011.9 |
| 20260506132503 | 66 | 321 | 5.2 | 14.8 | 0.00 | 0.00 | 0.00 | 75 | 1012.0 |
| 20260506132407 | 66 | 61 | 3.5 | 14.8 | 0.00 | 0.00 | 0.00 | 75 | 1011.9 |
| 20260506132254 | 66 | 40 | 0.9 | 14.8 | 0.00 | 0.00 | 0.00 | 76 | 1011.9 |
| 20260506132158 | 65 | 29 | 1.7 | 14.8 | 0.00 | 0.00 | 0.00 | 76 | 1011.9 |
| 20260506132121 | 65 | 49 | 4.3 | 14.8 | 0.00 | 0.00 | 0.00 | 76 | 1011.9 |
| 20260506132003 | 65 | 42 | 7.0 | 14.8 | 0.00 | 0.00 | 0.00 | 76 | 1011.9 |
| 20260506131906 | 65 | 348 | 3.5 | 12.2 | 0.00 | 0.00 | 0.00 | 76 | 1011.9 |
| 20260506131830 | 65 | 12 | 2.6 | 12.2 | 0.00 | 0.00 | 0.00 | 77 | 1012.0 |
| 20260506131713 | 65 | 29 | 3.5 | 12.2 | 0.00 | 0.00 | 0.00 | 77 | 1012.1 |
| 20260506131600 | 64 | 345 | 2.6 | 12.2 | 0.00 | 0.00 | 0.00 | 78 | 1012.0 |
| 20260506131503 | 64 | 27 | 3.5 | 12.2 | 0.00 | 0.00 | 0.00 | 77 | 1012.0 |
| 20260506131406 | 64 | 346 | 5.2 | 12.2 | 0.00 | 0.00 | 0.00 | 77 | 1012.0 |
| 20260506131310 | 64 | 36 | 6.1 | 12.2 | 0.00 | 0.00 | 0.00 | 77 | 1012.1 |
| 20260506131213 | 64 | 8 | 7.0 | 12.2 | 0.00 | 0.00 | 0.00 | 77 | 1012.0 |
| 20260506131056 | 64 | 37 | 6.1 | 12.2 | 0.00 | 0.00 | 0.00 | 77 | 1012.0 |
| 20260506131003 | 64 | 40 | 4.3 | 12.2 | 0.00 | 0.00 | 0.00 | 77 | 1012.0 |
| 20260506130907 | 64 | 6 | 5.2 | 12.2 | 0.00 | 0.00 | 0.00 | 77 | 1011.9 |
| 20260506130810 | 64 | 30 | 5.2 | 12.2 | 0.00 | 0.00 | 0.00 | 78 | 1011.9 |
| 20260506130714 | 64 | 358 | 4.3 | 12.2 | 0.00 | 0.00 | 0.00 | 78 | 1012.0 |
| 20260506130557 | 64 | 58 | 5.2 | 9.6 | 0.00 | 0.00 | 0.00 | 77 | 1012.0 |
| 20260506130500 | 64 | 27 | 4.3 | 9.6 | 0.00 | 0.00 | 0.00 | 78 | 1011.9 |
| 20260506130407 | 64 | 359 | 2.6 | 7.8 | 0.00 | 0.00 | 0.00 | 78 | 1011.9 |
| 20260506130331 | 64 | 15 | 3.5 | 7.8 | 0.00 | 0.00 | 0.00 | 78 | 1011.9 |
| 20260506130213 | 64 | 67 | 3.5 | 12.2 | 0.00 | 0.00 | 0.00 | 79 | 1011.9 |
| 20260506130127 | 64 | 20 | 2.6 | 12.2 | 0.00 | 0.00 | 0.00 | 79 | 1011.9 |
| 20260506130012 | 64 | 29 | 2.6 | 12.2 | 0.00 | 0.00 | 0.00 | 80 | 1011.9 |
| 20260506125856 | 63 | 25 | 1.7 | 12.2 | 0.00 | 0.00 | 0.00 | 80 | 1012.0 |
| 20260506125759 | 63 | 55 | 0.9 | 12.2 | 0.00 | 0.00 | 0.00 | 80 | 1012.0 |
| 20260506125707 | 63 | 75 | 1.7 | 12.2 | 0.00 | 0.00 | 0.00 | 80 | 1012.0 |
| 20260506125611 | 63 | 19 | 4.3 | 12.2 | 0.00 | 0.00 | 0.00 | 80 | 1012.0 |
| 20260506125514 | 63 | 57 | 5.2 | 12.2 | 0.00 | 0.00 | 0.00 | 80 | 1012.0 |
| 20260506125357 | 63 | 333 | 6.1 | 12.2 | 0.00 | 0.00 | 0.00 | 80 | 1012.0 |
| 20260506125320 | 63 | 93 | 6.1 | 12.2 | 0.00 | 0.00 | 0.00 | 80 | 1012.0 |
| 20260506125223 | 63 | 349 | 3.5 | 9.6 | 0.00 | 0.00 | 0.00 | 81 | 1012.0 |
| 20260506125106 | 62 | 39 | 3.5 | 13.9 | 0.00 | 0.00 | 0.00 | 81 | 1012.0 |
| 20260506125013 | 62 | 16 | 4.3 | 13.9 | 0.00 | 0.00 | 0.00 | 81 | 1012.1 |
| 20260506124916 | 62 | 23 | 5.2 | 13.9 | 0.00 | 0.00 | 0.00 | 81 | 1012.0 |
| 20260506124759 | 62 | 11 | 4.3 | 13.9 | 0.00 | 0.00 | 0.00 | 82 | 1012.0 |
| 20260506124702 | 62 | 13 | 2.6 | 13.9 | 0.00 | 0.00 | 0.00 | 82 | 1012.0 |
| 20260506124606 | 62 | 38 | 0.9 | 13.9 | 0.00 | 0.00 | 0.00 | 82 | 1012.0 |
| 20260506124508 | 62 | 47 | 0.9 | 13.9 | 0.00 | 0.00 | 0.00 | 82 | 1012.0 |
| 20260506124356 | 62 | 45 | 4.3 | 13.9 | 0.00 | 0.00 | 0.00 | 82 | 1012.0 |
| 20260506124259 | 62 | 23 | 3.5 | 14.8 | 0.00 | 0.00 | 0.00 | 82 | 1012.1 |
| 20260506124223 | 62 | 45 | 3.5 | 10.4 | 0.00 | 0.00 | 0.00 | 83 | 1012.1 |
| 20260506124106 | 62 | 348 | 4.3 | 10.4 | 0.00 | 0.00 | 0.00 | 82 | 1012.2 |
| 20260506124009 | 62 | 35 | 1.7 | 7.8 | 0.00 | 0.00 | 0.00 | 83 | 1012.2 |
| 20260506123912 | 62 | 345 | 0.9 | 7.8 | 0.00 | 0.00 | 0.00 | 83 | 1012.2 |
| 20260506123817 | 61 | 55 | 0.0 | 8.7 | 0.00 | 0.00 | 0.00 | 83 | 1012.1 |
| 20260506123703 | 61 | 56 | 1.7 | 9.6 | 0.00 | 0.00 | 0.00 | 83 | 1012.1 |
| 20260506123607 | 61 | 359 | 2.6 | 9.6 | 0.00 | 0.00 | 0.00 | 83 | 1012.1 |
| 20260506123509 | 61 | 42 | 1.7 | 9.6 | 0.00 | 0.00 | 0.00 | 83 | 1012.2 |
| 20260506123433 | 61 | 65 | 2.6 | 9.6 | 0.00 | 0.00 | 0.00 | 83 | 1012.1 |
| 20260506123256 | 61 | 14 | 2.6 | 10.4 | 0.00 | 0.00 | 0.00 | 83 | 1012.1 |
| 20260506123159 | 61 | 49 | 3.5 | 10.4 | 0.00 | 0.00 | 0.00 | 83 | 1012.2 |
| 20260506123123 | 61 | 30 | 3.5 | 10.4 | 0.00 | 0.00 | 0.00 | 83 | 1012.1 |
| 20260506123008 | 61 | 39 | 3.5 | 12.2 | 0.00 | 0.00 | 0.00 | 84 | 1012.1 |
| 20260506122932 | 61 | 13 | 5.2 | 12.2 | 0.00 | 0.00 | 0.00 | 84 | 1012.1 |
| 20260506122754 | 61 | 347 | 5.2 | 12.2 | 0.00 | 0.00 | 0.00 | 84 | 1012.1 |
| 20260506122718 | 61 | 25 | 3.5 | 12.2 | 0.00 | 0.00 | 0.00 | 84 | 1012.2 |
| 20260506122602 | 61 | 33 | 4.3 | 12.2 | 0.00 | 0.00 | 0.00 | 84 | 1012.1 |
| 20260506122504 | 61 | 67 | 5.2 | 12.2 | 0.00 | 0.00 | 0.00 | 84 | 1012.1 |
| 20260506122428 | 61 | 12 | 2.6 | 13.0 | 0.00 | 0.00 | 0.00 | 84 | 1012.0 |
| 20260506122331 | 61 | 49 | 4.3 | 13.0 | 0.00 | 0.00 | 0.00 | 84 | 1012.0 |
| 20260506122217 | 61 | 9 | 6.1 | 13.0 | 0.00 | 0.00 | 0.00 | 84 | 1012.1 |
| 20260506122100 | 61 | 1 | 2.6 | 13.0 | 0.00 | 0.00 | 0.00 | 85 | 1012.0 |
| 20260506122002 | 61 | 59 | 2.6 | 13.9 | 0.00 | 0.00 | 0.00 | 85 | 1012.0 |
| 20260506121906 | 61 | 75 | 4.3 | 13.9 | 0.00 | 0.00 | 0.00 | 85 | 1011.9 |
| 20260506121809 | 61 | 8 | 3.5 | 13.9 | 0.00 | 0.00 | 0.00 | 85 | 1011.9 |
| 20260506121712 | 61 | 13 | 5.2 | 13.9 | 0.00 | 0.00 | 0.00 | 85 | 1011.8 |
| 20260506121600 | 61 | 25 | 7.0 | 13.9 | 0.00 | 0.00 | 0.00 | 85 | 1011.8 |
| 20260506121523 | 61 | 40 | 6.1 | 13.9 | 0.00 | 0.00 | 0.00 | 85 | 1011.9 |
| 20260506121405 | 60 | 59 | 6.1 | 13.9 | 0.00 | 0.00 | 0.00 | 85 | 1011.9 |
| 20260506121309 | 60 | 20 | 7.0 | 13.9 | 0.00 | 0.00 | 0.00 | 85 | 1011.9 |
| 20260506121212 | 60 | 5 | 6.1 | 13.9 | 0.00 | 0.00 | 0.00 | 85 | 1011.8 |
| 20260506121056 | 60 | 343 | 2.6 | 11.3 | 0.00 | 0.00 | 0.00 | 86 | 1011.9 |
| 20260506121002 | 60 | 42 | 5.2 | 11.3 | 0.00 | 0.00 | 0.00 | 86 | 1011.9 |
| 20260506120905 | 60 | 339 | 6.1 | 11.3 | 0.00 | 0.00 | 0.00 | 86 | 1011.9 |
| 20260506120808 | 60 | 349 | 4.3 | 11.3 | 0.00 | 0.00 | 0.00 | 86 | 1012.0 |
| 20260506120712 | 60 | 1 | 2.6 | 11.3 | 0.00 | 0.00 | 0.00 | 87 | 1012.1 |
| 20260506120556 | 60 | 19 | 2.6 | 11.3 | 0.00 | 0.00 | 0.00 | 87 | 1012.1 |
| 20260506120459 | 60 | 8 | 4.3 | 11.3 | 0.00 | 0.00 | 0.00 | 87 | 1012.2 |
| 20260506120406 | 60 | 32 | 5.2 | 11.3 | 0.00 | 0.00 | 0.00 | 87 | 1012.2 |
| 20260506120310 | 60 | 359 | 2.6 | 11.3 | 0.00 | 0.00 | 0.00 | 88 | 1012.3 |
| 20260506120213 | 59 | 10 | 1.7 | 8.7 | 0.00 | 0.00 | 0.00 | 88 | 1012.3 |
| 20260506120128 | 59 | 25 | 1.7 | 8.7 | 0.00 | 0.00 | 0.00 | 89 | 1012.3 |
| 20260506120012 | 59 | 35 | 0.0 | 10.4 | 0.00 | 0.00 | 0.00 | 89 | 1012.3 |
| 20260506115916 | 59 | 56 | 0.9 | 10.4 | 0.00 | 0.00 | 0.00 | 88 | 1012.3 |
| 20260506115758 | 59 | 56 | 2.6 | 12.2 | 0.00 | 0.00 | 0.00 | 88 | 1012.3 |
| 20260506115706 | 59 | 13 | 4.3 | 12.2 | 0.00 | 0.00 | 0.00 | 88 | 1012.3 |
| 20260506115609 | 59 | 50 | 3.5 | 12.2 | 0.00 | 0.00 | 0.00 | 88 | 1012.2 |
| 20260506115532 | 59 | 343 | 2.6 | 12.2 | 0.00 | 0.00 | 0.00 | 88 | 1012.3 |
| 20260506115354 | 59 | 15 | 4.3 | 12.2 | 0.00 | 0.00 | 0.00 | 88 | 1012.4 |
| 20260506115258 | 59 | 359 | 5.2 | 12.2 | 0.00 | 0.00 | 0.00 | 88 | 1012.3 |
| 20260506115201 | 59 | 30 | 3.5 | 12.2 | 0.00 | 0.00 | 0.00 | 88 | 1012.3 |
| 20260506115125 | 59 | 13 | 4.3 | 12.2 | 0.00 | 0.00 | 0.00 | 88 | 1012.4 |
| 20260506115011 | 59 | 37 | 5.2 | 12.2 | 0.00 | 0.00 | 0.00 | 88 | 1012.4 |
| 20260506114854 | 59 | 11 | 3.5 | 9.6 | 0.00 | 0.00 | 0.00 | 88 | 1012.4 |
| 20260506114757 | 59 | 57 | 3.5 | 9.6 | 0.00 | 0.00 | 0.00 | 88 | 1012.4 |
| 20260506114701 | 59 | 359 | 3.5 | 14.8 | 0.00 | 0.00 | 0.00 | 88 | 1012.5 |
| 20260506114604 | 59 | 89 | 5.2 | 14.8 | 0.00 | 0.00 | 0.00 | 88 | 1012.4 |
| 20260506114508 | 59 | 352 | 3.5 | 14.8 | 0.00 | 0.00 | 0.00 | 88 | 1012.4 |
| 20260506114354 | 59 | 28 | 0.9 | 14.8 | 0.00 | 0.00 | 0.00 | 88 | 1012.5 |
| 20260506114258 | 59 | 33 | 1.7 | 14.8 | 0.00 | 0.00 | 0.00 | 88 | 1012.4 |
| 20260506114201 | 59 | 25 | 3.5 | 14.8 | 0.00 | 0.00 | 0.00 | 88 | 1012.4 |
| 20260506114106 | 59 | 21 | 5.2 | 14.8 | 0.00 | 0.00 | 0.00 | 88 | 1012.4 |
| 20260506114029 | 59 | 8 | 7.0 | 14.8 | 0.00 | 0.00 | 0.00 | 88 | 1012.4 |
| 20260506113931 | 59 | 355 | 4.3 | 15.6 | 0.00 | 0.00 | 0.00 | 88 | 1012.5 |
| 20260506113758 | 59 | 50 | 1.7 | 9.6 | 0.00 | 0.00 | 0.00 | 88 | 1012.5 |
| 20260506113721 | 59 | 23 | 3.5 | 9.6 | 0.00 | 0.00 | 0.00 | 88 | 1012.5 |
| 20260506113604 | 59 | 336 | 2.6 | 9.6 | 0.00 | 0.00 | 0.00 | 88 | 1012.5 |
| 20260506113507 | 59 | 32 | 0.9 | 8.7 | 0.00 | 0.00 | 0.00 | 89 | 1012.5 |
| 20260506113430 | 59 | 12 | 1.7 | 8.7 | 0.00 | 0.00 | 0.00 | 89 | 1012.5 |
| 20260506113312 | 59 | 41 | 1.7 | 9.6 | 0.00 | 0.00 | 0.00 | 89 | 1012.5 |
| 20260506113155 | 59 | 16 | 2.6 | 10.4 | 0.00 | 0.00 | 0.00 | 89 | 1012.6 |
| 20260506113104 | 59 | 70 | 1.7 | 10.4 | 0.00 | 0.00 | 0.00 | 89 | 1012.5 |
| 20260506113006 | 59 | 319 | 0.9 | 10.4 | 0.00 | 0.00 | 0.00 | 89 | 1012.5 |
| 20260506112910 | 59 | 55 | 2.6 | 10.4 | 0.00 | 0.00 | 0.00 | 89 | 1012.5 |
| 20260506112813 | 59 | 15 | 3.5 | 10.4 | 0.00 | 0.00 | 0.00 | 89 | 1012.6 |
| 20260506112657 | 59 | 6 | 2.6 | 10.4 | 0.00 | 0.00 | 0.00 | 89 | 1012.5 |
| 20260506112600 | 59 | 34 | 4.3 | 10.4 | 0.00 | 0.00 | 0.00 | 89 | 1012.5 |
| 20260506112507 | 59 | 25 | 6.1 | 10.4 | 0.00 | 0.00 | 0.00 | 89 | 1012.5 |
| 20260506112410 | 59 | 41 | 6.1 | 10.4 | 0.00 | 0.00 | 0.00 | 89 | 1012.5 |
| 20260506112315 | 59 | 19 | 5.2 | 10.4 | 0.00 | 0.00 | 0.00 | 89 | 1012.5 |
| 20260506112157 | 59 | 16 | 3.5 | 10.4 | 0.00 | 0.00 | 0.00 | 89 | 1012.5 |
| 20260506112102 | 58 | 41 | 2.6 | 10.4 | 0.00 | 0.00 | 0.00 | 89 | 1012.4 |
| 20260506112004 | 58 | 345 | 2.6 | 10.4 | 0.00 | 0.00 | 0.00 | 90 | 1012.5 |
| 20260506111908 | 58 | 39 | 2.6 | 10.4 | 0.00 | 0.00 | 0.00 | 90 | 1012.5 |
| 20260506111755 | 58 | 5 | 0.9 | 10.4 | 0.00 | 0.00 | 0.00 | 90 | 1012.5 |
| 20260506111658 | 58 | 47 | 0.9 | 10.4 | 0.00 | 0.00 | 0.00 | 90 | 1012.4 |
| 20260506111623 | 58 | 51 | 1.7 | 10.4 | 0.00 | 0.00 | 0.00 | 90 | 1012.3 |
| 20260506111504 | 58 | 350 | 3.5 | 10.4 | 0.00 | 0.00 | 0.00 | 90 | 1012.4 |
| 20260506111407 | 58 | 49 | 2.6 | 10.4 | 0.00 | 0.00 | 0.00 | 91 | 1012.4 |
| 20260506111332 | 58 | 18 | 1.7 | 8.7 | 0.00 | 0.00 | 0.00 | 91 | 1012.4 |
| 20260506111157 | 58 | 123 | 2.6 | 6.1 | 0.00 | 0.00 | 0.00 | 91 | 1012.4 |
| 20260506111102 | 58 | 20 | 2.6 | 6.1 | 0.00 | 0.00 | 0.00 | 91 | 1012.3 |
| 20260506111004 | 57 | 353 | 1.7 | 6.1 | 0.00 | 0.00 | 0.00 | 91 | 1012.3 |
| 20260506110907 | 57 | 317 | 2.6 | 6.1 | 0.00 | 0.00 | 0.00 | 91 | 1012.3 |
| 20260506110831 | 57 | 16 | 3.5 | 6.1 | 0.00 | 0.00 | 0.00 | 91 | 1012.3 |
| 20260506110734 | 57 | 40 | 1.7 | 7.0 | 0.00 | 0.00 | 0.00 | 91 | 1012.4 |
| 20260506110617 | 57 | 49 | 1.7 | 6.1 | 0.00 | 0.00 | 0.00 | 91 | 1012.3 |
| 20260506110519 | 57 | 341 | 1.7 | 7.8 | 0.00 | 0.00 | 0.00 | 91 | 1012.3 |
| 20260506110405 | 57 | 40 | 0.9 | 7.8 | 0.00 | 0.00 | 0.00 | 91 | 1012.4 |
| 20260506110309 | 57 | 44 | 0.9 | 7.8 | 0.00 | 0.00 | 0.00 | 91 | 1012.4 |
| 20260506110212 | 57 | 51 | 0.9 | 7.8 | 0.00 | 0.00 | 0.00 | 91 | 1012.4 |
| 20260506110126 | 57 | 46 | 0.9 | 7.8 | 0.00 | 0.00 | 0.00 | 91 | 1012.3 |
| 20260506110011 | 57 | 28 | 1.7 | 7.8 | 0.00 | 0.00 | 0.00 | 91 | 1012.4 |
| 20260506105855 | 57 | 13 | 0.9 | 7.8 | 0.00 | 0.00 | 0.00 | 91 | 1012.4 |
| 20260506105819 | 57 | 13 | 1.7 | 7.8 | 0.00 | 0.00 | 0.00 | 91 | 1012.4 |
| 20260506105705 | 57 | 23 | 2.6 | 7.8 | 0.00 | 0.00 | 0.00 | 91 | 1012.4 |
| 20260506105610 | 57 | 345 | 2.6 | 8.7 | 0.00 | 0.00 | 0.00 | 91 | 1012.3 |
| 20260506105512 | 57 | 47 | 0.9 | 6.1 | 0.00 | 0.00 | 0.00 | 91 | 1012.3 |
| 20260506105355 | 57 | 41 | 1.7 | 9.6 | 0.00 | 0.00 | 0.00 | 91 | 1012.4 |
| 20260506105259 | 57 | 44 | 1.7 | 9.6 | 0.00 | 0.00 | 0.00 | 91 | 1012.4 |
| 20260506105223 | 57 | 74 | 0.9 | 9.6 | 0.00 | 0.00 | 0.00 | 91 | 1012.4 |
| 20260506105109 | 57 | 11 | 2.6 | 9.6 | 0.00 | 0.00 | 0.00 | 91 | 1012.3 |
| 20260506105012 | 57 | 351 | 1.7 | 9.6 | 0.00 | 0.00 | 0.00 | 91 | 1012.4 |
| 20260506104855 | 57 | 22 | 0.9 | 9.6 | 0.00 | 0.00 | 0.00 | 91 | 1012.4 |
| 20260506104758 | 57 | 58 | 0.0 | 9.6 | 0.00 | 0.00 | 0.00 | 91 | 1012.4 |
| 20260506104723 | 57 | 34 | 0.9 | 9.6 | 0.00 | 0.00 | 0.00 | 91 | 1012.4 |
| 20260506104627 | 57 | 29 | 2.6 | 9.6 | 0.00 | 0.00 | 0.00 | 91 | 1012.4 |
| 20260506104509 | 57 | 349 | 2.6 | 10.4 | 0.00 | 0.00 | 0.00 | 91 | 1012.4 |
| 20260506104356 | 57 | 108 | 1.7 | 7.0 | 0.00 | 0.00 | 0.00 | 91 | 1012.4 |
| 20260506104259 | 57 | 360 | 0.9 | 7.8 | 0.00 | 0.00 | 0.00 | 91 | 1012.4 |
| 20260506104203 | 57 | 35 | 1.7 | 7.8 | 0.00 | 0.00 | 0.00 | 91 | 1012.4 |
| 20260506104107 | 57 | 18 | 0.9 | 7.8 | 0.00 | 0.00 | 0.00 | 91 | 1012.5 |
| 20260506104009 | 57 | 15 | 0.9 | 7.8 | 0.00 | 0.00 | 0.00 | 91 | 1012.5 |
| 20260506103913 | 57 | 15 | 0.9 | 7.8 | 0.00 | 0.00 | 0.00 | 91 | 1012.4 |
| 20260506103800 | 57 | 59 | 0.9 | 7.8 | 0.00 | 0.00 | 0.00 | 91 | 1012.5 |
| 20260506103703 | 57 | 16 | 2.6 | 7.8 | 0.00 | 0.00 | 0.00 | 91 | 1012.5 |
| 20260506103628 | 57 | 356 | 2.6 | 7.8 | 0.00 | 0.00 | 0.00 | 91 | 1012.5 |
| 20260506103509 | 57 | 58 | 2.6 | 7.8 | 0.00 | 0.00 | 0.00 | 91 | 1012.4 |
| 20260506103412 | 57 | 360 | 1.7 | 7.0 | 0.00 | 0.00 | 0.00 | 91 | 1012.4 |
| 20260506103256 | 57 | 352 | 3.5 | 7.0 | 0.00 | 0.00 | 0.00 | 91 | 1012.4 |
| 20260506103203 | 57 | 340 | 2.6 | 7.0 | 0.00 | 0.00 | 0.00 | 91 | 1012.5 |
| 20260506103107 | 57 | 40 | 0.9 | 7.0 | 0.00 | 0.00 | 0.00 | 90 | 1012.4 |
| 20260506103029 | 57 | 39 | 0.9 | 7.0 | 0.00 | 0.00 | 0.00 | 90 | 1012.4 |
| 20260506102912 | 57 | 40 | 1.7 | 7.0 | 0.00 | 0.00 | 0.00 | 90 | 1012.3 |
| 20260506102815 | 57 | 72 | 0.9 | 7.8 | 0.00 | 0.00 | 0.00 | 90 | 1012.3 |
| 20260506102718 | 57 | 47 | 0.0 | 6.1 | 0.00 | 0.00 | 0.00 | 90 | 1012.4 |
| 20260506102602 | 57 | 69 | 1.7 | 6.1 | 0.00 | 0.00 | 0.00 | 90 | 1012.4 |
| 20260506102524 | 57 | 8 | 3.5 | 6.1 | 0.00 | 0.00 | 0.00 | 90 | 1012.3 |
| 20260506102427 | 57 | 265 | 3.5 | 7.0 | 0.00 | 0.00 | 0.00 | 90 | 1012.3 |
| 20260506102333 | 57 | 62 | 2.6 | 7.0 | 0.00 | 0.00 | 0.00 | 90 | 1012.3 |
| 20260506102155 | 57 | 9 | 1.7 | 7.0 | 0.00 | 0.00 | 0.00 | 90 | 1012.3 |
| 20260506102100 | 57 | 62 | 1.7 | 7.0 | 0.00 | 0.00 | 0.00 | 90 | 1012.3 |
| 20260506102002 | 57 | 17 | 1.7 | 7.0 | 0.00 | 0.00 | 0.00 | 90 | 1012.4 |
| 20260506101906 | 57 | 41 | 2.6 | 8.7 | 0.00 | 0.00 | 0.00 | 90 | 1012.4 |
| 20260506101809 | 57 | 37 | 1.7 | 8.7 | 0.00 | 0.00 | 0.00 | 90 | 1012.4 |
| 20260506101657 | 57 | 9 | 2.6 | 8.7 | 0.00 | 0.00 | 0.00 | 90 | 1012.3 |
| 20260506101620 | 57 | 28 | 3.5 | 8.7 | 0.00 | 0.00 | 0.00 | 90 | 1012.3 |
| 20260506101523 | 57 | 29 | 1.7 | 8.7 | 0.00 | 0.00 | 0.00 | 90 | 1012.4 |
| 20260506101406 | 57 | 37 | 0.9 | 9.6 | 0.00 | 0.00 | 0.00 | 90 | 1012.4 |
| 20260506101309 | 57 | 37 | 2.6 | 10.4 | 0.00 | 0.00 | 0.00 | 90 | 1012.3 |
| 20260506101213 | 57 | 44 | 2.6 | 10.4 | 0.00 | 0.00 | 0.00 | 90 | 1012.4 |
| 20260506101056 | 57 | 19 | 1.7 | 10.4 | 0.00 | 0.00 | 0.00 | 90 | 1012.3 |
| 20260506101023 | 57 | 352 | 2.6 | 10.4 | 0.00 | 0.00 | 0.00 | 90 | 1012.3 |
| 20260506100905 | 57 | 42 | 2.6 | 10.4 | 0.00 | 0.00 | 0.00 | 90 | 1012.3 |
| 20260506100809 | 57 | 46 | 4.3 | 10.4 | 0.00 | 0.00 | 0.00 | 90 | 1012.3 |
| 20260506100713 | 57 | 18 | 5.2 | 10.4 | 0.00 | 0.00 | 0.00 | 90 | 1012.3 |
| 20260506100616 | 57 | 37 | 4.3 | 10.4 | 0.00 | 0.00 | 0.00 | 90 | 1012.2 |
| 20260506100457 | 57 | 359 | 3.5 | 9.6 | 0.00 | 0.00 | 0.00 | 90 | 1012.3 |
| 20260506100401 | 57 | 70 | 2.6 | 9.6 | 0.00 | 0.00 | 0.00 | 90 | 1012.2 |
| 20260506100309 | 57 | 342 | 1.7 | 9.6 | 0.00 | 0.00 | 0.00 | 90 | 1012.2 |
| 20260506100212 | 57 | 312 | 0.0 | 9.6 | 0.00 | 0.00 | 0.00 | 90 | 1012.2 |
| 20260506100128 | 57 | 39 | 0.0 | 9.6 | 0.00 | 0.00 | 0.00 | 90 | 1012.2 |
| 20260506100012 | 57 | 67 | 1.7 | 9.6 | 0.00 | 0.00 | 0.00 | 90 | 1012.1 |
| 20260506095855 | 57 | 19 | 4.3 | 9.6 | 0.00 | 0.00 | 0.00 | 90 | 1012.1 |
| 20260506095759 | 57 | 350 | 4.3 | 11.3 | 0.00 | 0.00 | 0.00 | 90 | 1012.2 |
| 20260506095707 | 57 | 25 | 5.2 | 14.8 | 0.00 | 0.00 | 0.00 | 90 | 1012.1 |
| 20260506095610 | 57 | 37 | 2.6 | 14.8 | 0.00 | 0.00 | 0.00 | 90 | 1012.1 |
| 20260506095512 | 57 | 354 | 1.7 | 14.8 | 0.00 | 0.00 | 0.00 | 90 | 1012.1 |
| 20260506095356 | 57 | 357 | 2.6 | 14.8 | 0.00 | 0.00 | 0.00 | 90 | 1012.2 |
| 20260506095259 | 57 | 350 | 4.3 | 14.8 | 0.00 | 0.00 | 0.00 | 90 | 1012.2 |
| 20260506095203 | 57 | 312 | 5.2 | 14.8 | 0.00 | 0.00 | 0.00 | 90 | 1012.1 |
| 20260506095110 | 57 | 32 | 4.3 | 14.8 | 0.00 | 0.00 | 0.00 | 90 | 1012.2 |
| 20260506095013 | 57 | 359 | 3.5 | 14.8 | 0.00 | 0.00 | 0.00 | 90 | 1012.1 |
| 20260506094856 | 57 | 345 | 1.7 | 13.0 | 0.00 | 0.00 | 0.00 | 90 | 1012.1 |
| 20260506094820 | 57 | 4 | 0.9 | 8.7 | 0.00 | 0.00 | 0.00 | 90 | 1012.1 |
| 20260506094702 | 57 | 21 | 0.0 | 8.7 | 0.00 | 0.00 | 0.00 | 90 | 1012.1 |
| 20260506094607 | 57 | 63 | 0.9 | 8.7 | 0.00 | 0.00 | 0.00 | 90 | 1012.1 |
| 20260506094513 | 57 | 44 | 1.7 | 8.7 | 0.00 | 0.00 | 0.00 | 90 | 1012.1 |
| 20260506094357 | 57 | 45 | 1.7 | 8.7 | 0.00 | 0.00 | 0.00 | 89 | 1012.1 |
| 20260506094300 | 57 | 49 | 3.5 | 8.7 | 0.00 | 0.00 | 0.00 | 90 | 1012.1 |
| 20260506094204 | 57 | 15 | 3.5 | 10.4 | 0.00 | 0.00 | 0.00 | 90 | 1012.0 |
| 20260506094108 | 57 | 18 | 1.7 | 7.0 | 0.00 | 0.00 | 0.00 | 90 | 1012.0 |
| 20260506094011 | 57 | 5 | 1.7 | 7.0 | 0.00 | 0.00 | 0.00 | 89 | 1012.1 |
| 20260506093858 | 57 | 25 | 2.6 | 7.0 | 0.00 | 0.00 | 0.00 | 90 | 1012.1 |
| 20260506093801 | 57 | 336 | 1.7 | 7.0 | 0.00 | 0.00 | 0.00 | 89 | 1012.1 |
| 20260506093705 | 57 | 31 | 1.7 | 7.0 | 0.00 | 0.00 | 0.00 | 90 | 1012.1 |
| 20260506093629 | 57 | 30 | 2.6 | 7.0 | 0.00 | 0.00 | 0.00 | 90 | 1012.2 |
| 20260506093510 | 57 | 354 | 3.5 | 7.0 | 0.00 | 0.00 | 0.00 | 90 | 1012.2 |
| 20260506093414 | 57 | 35 | 3.5 | 7.8 | 0.00 | 0.00 | 0.00 | 90 | 1012.1 |
| 20260506093301 | 57 | 30 | 1.7 | 7.8 | 0.00 | 0.00 | 0.00 | 89 | 1012.1 |
| 20260506093204 | 57 | 12 | 1.7 | 7.8 | 0.00 | 0.00 | 0.00 | 89 | 1012.1 |
| 20260506093108 | 57 | 32 | 1.7 | 8.7 | 0.00 | 0.00 | 0.00 | 89 | 1012.1 |
| 20260506093011 | 57 | 25 | 1.7 | 8.7 | 0.00 | 0.00 | 0.00 | 89 | 1012.2 |
| 20260506092854 | 58 | 340 | 1.7 | 8.7 | 0.00 | 0.00 | 0.00 | 89 | 1012.2 |
| 20260506092757 | 58 | 32 | 0.9 | 8.7 | 0.00 | 0.00 | 0.00 | 89 | 1012.2 |
| 20260506092705 | 58 | 27 | 0.0 | 8.7 | 0.00 | 0.00 | 0.00 | 89 | 1012.2 |
| 20260506092608 | 58 | 25 | 1.7 | 8.7 | 0.00 | 0.00 | 0.00 | 89 | 1012.2 |
| 20260506092511 | 58 | 37 | 2.6 | 9.6 | 0.00 | 0.00 | 0.00 | 89 | 1012.2 |
| 20260506092354 | 58 | 32 | 2.6 | 9.6 | 0.00 | 0.00 | 0.00 | 89 | 1012.1 |
| 20260506092258 | 58 | 40 | 3.5 | 9.6 | 0.00 | 0.00 | 0.00 | 89 | 1012.1 |
| 20260506092201 | 58 | 16 | 2.6 | 14.8 | 0.00 | 0.00 | 0.00 | 89 | 1012.1 |
| 20260506092125 | 58 | 15 | 2.6 | 14.8 | 0.00 | 0.00 | 0.00 | 89 | 1012.1 |
| 20260506092010 | 58 | 350 | 3.5 | 14.8 | 0.00 | 0.00 | 0.00 | 89 | 1012.1 |
| 20260506091854 | 58 | 23 | 1.7 | 14.8 | 0.00 | 0.00 | 0.00 | 89 | 1012.1 |
| 20260506091757 | 58 | 15 | 2.6 | 14.8 | 0.00 | 0.00 | 0.00 | 89 | 1012.1 |
| 20260506091721 | 58 | 340 | 2.6 | 14.8 | 0.00 | 0.00 | 0.00 | 89 | 1012.1 |
| 20260506091605 | 58 | 63 | 0.9 | 14.8 | 0.00 | 0.00 | 0.00 | 89 | 1012.1 |
| 20260506091507 | 58 | 25 | 4.3 | 14.8 | 0.00 | 0.00 | 0.00 | 89 | 1012.1 |
| 20260506091354 | 58 | 28 | 4.3 | 13.9 | 0.00 | 0.00 | 0.00 | 89 | 1012.0 |
| 20260506091318 | 58 | 22 | 2.6 | 9.6 | 0.00 | 0.00 | 0.00 | 89 | 1012.1 |
| 20260506091201 | 58 | 54 | 1.7 | 9.6 | 0.00 | 0.00 | 0.00 | 89 | 1012.1 |
| 20260506091125 | 58 | 58 | 1.7 | 9.6 | 0.00 | 0.00 | 0.00 | 89 | 1012.1 |
| 20260506091006 | 58 | 338 | 1.7 | 9.6 | 0.00 | 0.00 | 0.00 | 89 | 1012.1 |
| 20260506090910 | 58 | 73 | 1.7 | 9.6 | 0.00 | 0.00 | 0.00 | 89 | 1012.1 |
| 20260506090834 | 58 | 6 | 2.6 | 9.6 | 0.00 | 0.00 | 0.00 | 89 | 1012.2 |
| 20260506090701 | 58 | 321 | 1.7 | 9.6 | 0.00 | 0.00 | 0.00 | 89 | 1012.1 |
| 20260506090605 | 58 | 61 | 2.6 | 9.6 | 0.00 | 0.00 | 0.00 | 89 | 1012.1 |
| 20260506090528 | 58 | 40 | 3.5 | 9.6 | 0.00 | 0.00 | 0.00 | 89 | 1012.1 |
| 20260506090411 | 58 | 33 | 2.6 | 10.4 | 0.00 | 0.00 | 0.00 | 89 | 1012.2 |
| 20260506090254 | 58 | 23 | 2.6 | 10.4 | 0.00 | 0.00 | 0.00 | 88 | 1012.1 |
| 20260506090217 | 58 | 79 | 1.7 | 10.4 | 0.00 | 0.00 | 0.00 | 88 | 1012.2 |
| 20260506090153 | 58 | 40 | 1.7 | 10.4 | 0.00 | 0.00 | 0.00 | 88 | 1012.2 |
| 20260506090000 | 58 | 64 | 2.6 | 10.4 | 0.00 | 0.00 | 0.00 | 88 | 1012.2 |
| 20260506085904 | 58 | 33 | 4.3 | 10.4 | 0.00 | 0.00 | 0.00 | 88 | 1012.3 |
| 20260506085808 | 58 | 32 | 4.3 | 10.4 | 0.00 | 0.00 | 0.00 | 88 | 1012.3 |
| 20260506085711 | 58 | 42 | 3.5 | 10.4 | 0.00 | 0.00 | 0.00 | 88 | 1012.3 |
| 20260506085635 | 58 | 343 | 3.5 | 10.4 | 0.00 | 0.00 | 0.00 | 88 | 1012.3 |
| 20260506085456 | 58 | 8 | 3.5 | 11.3 | 0.00 | 0.00 | 0.00 | 88 | 1012.3 |
| 20260506085420 | 58 | 49 | 2.6 | 8.7 | 0.00 | 0.00 | 0.00 | 88 | 1012.3 |
| 20260506085323 | 58 | 44 | 0.9 | 7.0 | 0.00 | 0.00 | 0.00 | 88 | 1012.3 |
| 20260506085230 | 58 | 37 | 0.9 | 7.0 | 0.00 | 0.00 | 0.00 | 88 | 1012.3 |
| 20260506085133 | 58 | 58 | 1.7 | 7.8 | 0.00 | 0.00 | 0.00 | 88 | 1012.3 |
| 20260506084954 | 58 | 13 | 2.6 | 7.8 | 0.00 | 0.00 | 0.00 | 88 | 1012.3 |
| 20260506084858 | 58 | 74 | 1.7 | 7.8 | 0.00 | 0.00 | 0.00 | 88 | 1012.3 |
| 20260506084802 | 58 | 39 | 1.7 | 7.8 | 0.00 | 0.00 | 0.00 | 88 | 1012.3 |
| 20260506084705 | 58 | 38 | 2.6 | 7.8 | 0.00 | 0.00 | 0.00 | 88 | 1012.3 |
| 20260506084609 | 58 | 39 | 1.7 | 7.8 | 0.00 | 0.00 | 0.00 | 88 | 1012.3 |
| 20260506084455 | 58 | 47 | 4.3 | 8.7 | 0.00 | 0.00 | 0.00 | 88 | 1012.3 |
| 20260506084358 | 58 | 29 | 4.3 | 12.2 | 0.00 | 0.00 | 0.00 | 88 | 1012.3 |
| 20260506084302 | 58 | 337 | 2.6 | 12.2 | 0.00 | 0.00 | 0.00 | 88 | 1012.4 |
| 20260506084226 | 58 | 37 | 0.9 | 12.2 | 0.00 | 0.00 | 0.00 | 88 | 1012.3 |
| 20260506084110 | 58 | 47 | 2.6 | 12.2 | 0.00 | 0.00 | 0.00 | 88 | 1012.3 |
| 20260506084012 | 58 | 21 | 2.6 | 12.2 | 0.00 | 0.00 | 0.00 | 88 | 1012.3 |
| 20260506083859 | 58 | 23 | 2.6 | 12.2 | 0.00 | 0.00 | 0.00 | 88 | 1012.3 |
| 20260506083803 | 58 | 347 | 4.3 | 12.2 | 0.00 | 0.00 | 0.00 | 88 | 1012.3 |
| 20260506083706 | 58 | 46 | 4.3 | 12.2 | 0.00 | 0.00 | 0.00 | 88 | 1012.3 |
| 20260506083610 | 58 | 25 | 5.2 | 12.2 | 0.00 | 0.00 | 0.00 | 88 | 1012.3 |
| 20260506083512 | 58 | 26 | 3.5 | 13.0 | 0.00 | 0.00 | 0.00 | 88 | 1012.3 |
| 20260506083356 | 58 | 80 | 2.6 | 13.0 | 0.00 | 0.00 | 0.00 | 87 | 1012.3 |
| 20260506083303 | 58 | 50 | 2.6 | 13.0 | 0.00 | 0.00 | 0.00 | 87 | 1012.3 |
| 20260506083207 | 58 | 1 | 1.7 | 13.0 | 0.00 | 0.00 | 0.00 | 87 | 1012.3 |
| 20260506083111 | 58 | 3 | 1.7 | 13.0 | 0.00 | 0.00 | 0.00 | 87 | 1012.3 |
| 20260506083014 | 58 | 21 | 0.9 | 13.0 | 0.00 | 0.00 | 0.00 | 87 | 1012.3 |
| 20260506082857 | 58 | 3 | 4.3 | 13.0 | 0.00 | 0.00 | 0.00 | 87 | 1012.3 |
| 20260506082800 | 58 | 9 | 3.5 | 13.0 | 0.00 | 0.00 | 0.00 | 87 | 1012.3 |
| 20260506082707 | 58 | 348 | 2.6 | 13.0 | 0.00 | 0.00 | 0.00 | 87 | 1012.3 |
| 20260506082612 | 58 | 58 | 2.6 | 8.7 | 0.00 | 0.00 | 0.00 | 87 | 1012.3 |
| 20260506082534 | 58 | 342 | 3.5 | 8.7 | 0.00 | 0.00 | 0.00 | 87 | 1012.3 |
| 20260506082357 | 58 | 353 | 4.3 | 8.7 | 0.00 | 0.00 | 0.00 | 87 | 1012.3 |
| 20260506082300 | 58 | 29 | 2.6 | 9.6 | 0.00 | 0.00 | 0.00 | 87 | 1012.3 |
| 20260506082204 | 58 | 348 | 1.7 | 7.8 | 0.00 | 0.00 | 0.00 | 87 | 1012.3 |
| 20260506082111 | 58 | 63 | 1.7 | 7.8 | 0.00 | 0.00 | 0.00 | 87 | 1012.3 |
| 20260506082014 | 58 | 59 | 0.9 | 7.8 | 0.00 | 0.00 | 0.00 | 87 | 1012.3 |
| 20260506081857 | 58 | 40 | 1.7 | 7.8 | 0.00 | 0.00 | 0.00 | 87 | 1012.3 |
| 20260506081821 | 58 | 354 | 1.7 | 7.8 | 0.00 | 0.00 | 0.00 | 87 | 1012.3 |
| 20260506081703 | 58 | 35 | 0.9 | 7.0 | 0.00 | 0.00 | 0.00 | 87 | 1012.3 |
| 20260506081607 | 58 | 22 | 1.7 | 8.7 | 0.00 | 0.00 | 0.00 | 87 | 1012.3 |
| 20260506081509 | 58 | 1 | 1.7 | 8.7 | 0.00 | 0.00 | 0.00 | 87 | 1012.3 |
| 20260506081357 | 58 | 63 | 0.9 | 8.7 | 0.00 | 0.00 | 0.00 | 87 | 1012.3 |
| 20260506081300 | 58 | 18 | 0.9 | 8.7 | 0.00 | 0.00 | 0.00 | 87 | 1012.3 |
| 20260506081203 | 59 | 39 | 1.7 | 8.7 | 0.00 | 0.00 | 0.00 | 87 | 1012.3 |
| 20260506081107 | 59 | 39 | 1.7 | 8.7 | 0.00 | 0.00 | 0.00 | 87 | 1012.3 |
| 20260506081010 | 59 | 10 | 1.7 | 8.7 | 0.00 | 0.00 | 0.00 | 86 | 1012.3 |
| 20260506080857 | 59 | 44 | 2.6 | 8.7 | 0.00 | 0.00 | 0.00 | 86 | 1012.3 |
| 20260506080801 | 59 | 17 | 1.7 | 8.7 | 0.00 | 0.00 | 0.00 | 86 | 1012.3 |
| 20260506080704 | 59 | 71 | 2.6 | 8.7 | 0.00 | 0.00 | 0.00 | 86 | 1012.3 |
| 20260506080608 | 59 | 32 | 1.7 | 8.7 | 0.00 | 0.00 | 0.00 | 86 | 1012.2 |
| 20260506080510 | 59 | 28 | 2.6 | 8.7 | 0.00 | 0.00 | 0.00 | 86 | 1012.3 |
| 20260506080414 | 59 | 62 | 3.5 | 8.7 | 0.00 | 0.00 | 0.00 | 86 | 1012.3 |
| 20260506080301 | 59 | 85 | 1.7 | 8.7 | 0.00 | 0.00 | 0.00 | 86 | 1012.3 |
| 20260506080204 | 59 | 31 | 1.7 | 8.7 | 0.00 | 0.00 | 0.00 | 86 | 1012.3 |
| 20260506080119 | 59 | 40 | 2.6 | 8.7 | 0.00 | 0.00 | 0.00 | 86 | 1012.3 |
| 20260506073501 | 59 | 36 | 3.5 | 11.3 | 0.00 | 0.00 | 0.00 | 85 | 1012.4 |
| 20260506073401 | 59 | 13 | 3.5 | 13.9 | 0.00 | 0.00 | 0.00 | 85 | 1012.3 |
| 20260506073305 | 59 | 50 | 1.7 | 13.9 | 0.00 | 0.00 | 0.00 | 85 | 1012.4 |
| 20260506073208 | 59 | 44 | 0.9 | 13.9 | 0.00 | 0.00 | 0.00 | 85 | 1012.3 |
| 20260506073056 | 59 | 44 | 4.3 | 13.9 | 0.00 | 0.00 | 0.00 | 85 | 1012.3 |
| 20260506072958 | 59 | 67 | 3.5 | 13.9 | 0.00 | 0.00 | 0.00 | 85 | 1012.2 |
| 20260506072922 | 59 | 44 | 0.9 | 13.9 | 0.00 | 0.00 | 0.00 | 85 | 1012.3 |
| 20260506072805 | 59 | 74 | 0.9 | 13.9 | 0.00 | 0.00 | 0.00 | 85 | 1012.3 |
| 20260506072708 | 59 | 342 | 4.3 | 13.9 | 0.00 | 0.00 | 0.00 | 85 | 1012.3 |
| 20260506072613 | 59 | 40 | 6.1 | 13.9 | 0.00 | 0.00 | 0.00 | 85 | 1012.3 |
| 20260506072459 | 59 | 321 | 4.3 | 10.4 | 0.00 | 0.00 | 0.00 | 85 | 1012.3 |
| 20260506072402 | 59 | 25 | 1.7 | 9.6 | 0.00 | 0.00 | 0.00 | 85 | 1012.3 |
| 20260506072306 | 59 | 76 | 1.7 | 9.6 | 0.00 | 0.00 | 0.00 | 85 | 1012.2 |
| 20260506072210 | 59 | 46 | 0.9 | 9.6 | 0.00 | 0.00 | 0.00 | 85 | 1012.2 |
| 20260506072113 | 59 | 35 | 0.0 | 9.6 | 0.00 | 0.00 | 0.00 | 85 | 1012.2 |
| 20260506071955 | 59 | 64 | 1.7 | 9.6 | 0.00 | 0.00 | 0.00 | 85 | 1012.2 |
| 20260506071903 | 59 | 29 | 2.6 | 9.6 | 0.00 | 0.00 | 0.00 | 85 | 1012.2 |
| 20260506071827 | 59 | 343 | 3.5 | 9.6 | 0.00 | 0.00 | 0.00 | 85 | 1012.2 |
| 20260506071709 | 59 | 47 | 3.5 | 9.6 | 0.00 | 0.00 | 0.00 | 85 | 1012.2 |
| 20260506071613 | 59 | 30 | 2.6 | 8.7 | 0.00 | 0.00 | 0.00 | 85 | 1012.2 |
| 20260506071455 | 59 | 79 | 1.7 | 10.4 | 0.00 | 0.00 | 0.00 | 85 | 1012.2 |
| 20260506071358 | 59 | 48 | 1.7 | 13.0 | 0.00 | 0.00 | 0.00 | 85 | 1012.2 |
| 20260506071322 | 59 | 329 | 2.6 | 13.0 | 0.00 | 0.00 | 0.00 | 85 | 1012.1 |
| 20260506071229 | 59 | 44 | 2.6 | 13.0 | 0.00 | 0.00 | 0.00 | 85 | 1012.1 |
| 20260506071112 | 59 | 22 | 0.9 | 13.0 | 0.00 | 0.00 | 0.00 | 85 | 1012.1 |
| 20260506070954 | 59 | 75 | 1.7 | 13.0 | 0.00 | 0.00 | 0.00 | 85 | 1012.1 |
| 20260506070917 | 59 | 53 | 2.6 | 13.0 | 0.00 | 0.00 | 0.00 | 85 | 1012.1 |
| 20260506070800 | 59 | 25 | 3.5 | 13.0 | 0.00 | 0.00 | 0.00 | 85 | 1012.1 |
| 20260506070703 | 59 | 33 | 4.3 | 13.0 | 0.00 | 0.00 | 0.00 | 85 | 1012.2 |
| 20260506070608 | 59 | 39 | 2.6 | 13.0 | 0.00 | 0.00 | 0.00 | 85 | 1012.1 |
| 20260506070454 | 59 | 25 | 1.7 | 8.7 | 0.00 | 0.00 | 0.00 | 85 | 1012.1 |
| 20260506070417 | 59 | 69 | 1.7 | 8.7 | 0.00 | 0.00 | 0.00 | 85 | 1012.1 |
| 20260506070320 | 59 | 84 | 0.9 | 8.7 | 0.00 | 0.00 | 0.00 | 85 | 1012.1 |
| 20260506070202 | 59 | 63 | 2.6 | 13.9 | 0.00 | 0.00 | 0.00 | 85 | 1012.1 |
| 20260506070117 | 59 | 30 | 4.3 | 13.9 | 0.00 | 0.00 | 0.00 | 85 | 1012.0 |
| 20260506062420 | 59 | 88 | 2.6 | 10.4 | 0.00 | 0.00 | 0.00 | 82 | 1012.1 |
| 20260506062323 | 59 | 56 | 3.5 | 10.4 | 0.00 | 0.00 | 0.00 | 82 | 1012.1 |
| 20260506062206 | 59 | 33 | 3.5 | 10.4 | 0.00 | 0.00 | 0.00 | 82 | 1012.1 |
| 20260506062109 | 59 | 32 | 3.5 | 10.4 | 0.00 | 0.00 | 0.00 | 82 | 1012.1 |
| 20260506062011 | 59 | 8 | 2.6 | 10.4 | 0.00 | 0.00 | 0.00 | 82 | 1012.1 |
| 20260506061859 | 59 | 355 | 3.5 | 12.2 | 0.00 | 0.00 | 0.00 | 82 | 1012.1 |
| 20260506061802 | 59 | 15 | 3.5 | 12.2 | 0.00 | 0.00 | 0.00 | 82 | 1012.1 |
| 20260506061706 | 59 | 336 | 3.5 | 12.2 | 0.00 | 0.00 | 0.00 | 82 | 1012.1 |
| 20260506061611 | 59 | 8 | 4.3 | 12.2 | 0.00 | 0.00 | 0.00 | 82 | 1012.1 |
| 20260506061513 | 59 | 39 | 3.5 | 12.2 | 0.00 | 0.00 | 0.00 | 82 | 1012.1 |
| 20260506061416 | 59 | 51 | 1.7 | 12.2 | 0.00 | 0.00 | 0.00 | 82 | 1012.0 |
| 20260506061303 | 59 | 338 | 2.6 | 12.2 | 0.00 | 0.00 | 0.00 | 81 | 1012.0 |
| 20260506061207 | 59 | 21 | 2.6 | 12.2 | 0.00 | 0.00 | 0.00 | 81 | 1012.1 |
| 20260506061132 | 59 | 355 | 5.2 | 13.0 | 0.00 | 0.00 | 0.00 | 81 | 1012.1 |
| 20260506061013 | 59 | 3 | 5.2 | 12.2 | 0.00 | 0.00 | 0.00 | 81 | 1012.1 |
| 20260506060916 | 59 | 33 | 2.6 | 9.6 | 0.00 | 0.00 | 0.00 | 81 | 1012.1 |
| 20260506060841 | 59 | 25 | 1.7 | 9.6 | 0.00 | 0.00 | 0.00 | 81 | 1012.1 |
| 20260506060659 | 59 | 18 | 2.6 | 9.6 | 0.00 | 0.00 | 0.00 | 81 | 1012.1 |
| 20260506060603 | 59 | 328 | 1.7 | 9.6 | 0.00 | 0.00 | 0.00 | 81 | 1012.2 |
| 20260506060509 | 59 | 33 | 1.7 | 9.6 | 0.00 | 0.00 | 0.00 | 81 | 1012.1 |
| 20260506060413 | 59 | 42 | 3.5 | 9.6 | 0.00 | 0.00 | 0.00 | 81 | 1012.1 |
| 20260506060316 | 59 | 69 | 4.3 | 9.6 | 0.00 | 0.00 | 0.00 | 81 | 1012.2 |
| 20260506060219 | 59 | 18 | 4.3 | 9.6 | 0.00 | 0.00 | 0.00 | 81 | 1012.2 |
| 20260506060133 | 59 | 37 | 3.5 | 9.6 | 0.00 | 0.00 | 0.00 | 81 | 1012.2 |
| 20260506051358 | 60 | 331 | 2.6 | 10.4 | 0.00 | 0.00 | 0.00 | 77 | 1012.4 |
| 20260506051302 | 60 | 25 | 4.3 | 11.3 | 0.00 | 0.00 | 0.00 | 77 | 1012.4 |
| 20260506051206 | 60 | 13 | 3.5 | 10.4 | 0.00 | 0.00 | 0.00 | 77 | 1012.4 |
| 20260506051109 | 60 | 21 | 3.5 | 9.6 | 0.00 | 0.00 | 0.00 | 77 | 1012.5 |
| 20260506050956 | 61 | 342 | 2.6 | 9.6 | 0.00 | 0.00 | 0.00 | 77 | 1012.5 |
| 20260506050859 | 61 | 29 | 1.7 | 9.6 | 0.00 | 0.00 | 0.00 | 77 | 1012.5 |
| 20260506050824 | 61 | 342 | 1.7 | 9.6 | 0.00 | 0.00 | 0.00 | 77 | 1012.5 |
| 20260506050707 | 61 | 33 | 3.5 | 9.6 | 0.00 | 0.00 | 0.00 | 77 | 1012.5 |
| 20260506050611 | 61 | 32 | 4.3 | 9.6 | 0.00 | 0.00 | 0.00 | 77 | 1012.4 |
| 20260506050513 | 61 | 15 | 3.5 | 7.8 | 0.00 | 0.00 | 0.00 | 77 | 1012.5 |
| 20260506050356 | 61 | 22 | 2.6 | 7.0 | 0.00 | 0.00 | 0.00 | 77 | 1012.5 |
| 20260506050324 | 61 | 44 | 2.6 | 7.0 | 0.00 | 0.00 | 0.00 | 77 | 1012.5 |
| 20260506050206 | 61 | 356 | 0.9 | 7.0 | 0.00 | 0.00 | 0.00 | 76 | 1012.5 |
| 20260506050121 | 61 | 65 | 1.7 | 8.7 | 0.00 | 0.00 | 0.00 | 76 | 1012.5 |
| 20260506045100 | 61 | 18 | 4.3 | 9.6 | 0.00 | 0.00 | 0.00 | 76 | 1012.6 |
| 20260506045007 | 61 | 27 | 2.6 | 9.6 | 0.00 | 0.00 | 0.00 | 76 | 1012.5 |
| 20260506044910 | 61 | 328 | 2.6 | 11.3 | 0.00 | 0.00 | 0.00 | 76 | 1012.5 |
| 20260506044813 | 61 | 30 | 1.7 | 9.6 | 0.00 | 0.00 | 0.00 | 76 | 1012.6 |
| 20260506044717 | 60 | 32 | 2.6 | 9.6 | 0.00 | 0.00 | 0.00 | 76 | 1012.5 |
| 20260506044600 | 60 | 101 | 3.5 | 13.9 | 0.00 | 0.00 | 0.00 | 76 | 1012.6 |
| 20260506044502 | 60 | 317 | 3.5 | 13.9 | 0.00 | 0.00 | 0.00 | 76 | 1012.6 |
| 20260506044406 | 60 | 95 | 3.5 | 13.9 | 0.00 | 0.00 | 0.00 | 76 | 1012.5 |
| 20260506044313 | 60 | 23 | 2.6 | 13.9 | 0.00 | 0.00 | 0.00 | 76 | 1012.6 |
| 20260506044157 | 60 | 58 | 4.3 | 13.9 | 0.00 | 0.00 | 0.00 | 76 | 1012.6 |
| 20260506044101 | 60 | 33 | 5.2 | 13.9 | 0.00 | 0.00 | 0.00 | 76 | 1012.6 |
| 20260506044024 | 60 | 328 | 5.2 | 13.9 | 0.00 | 0.00 | 0.00 | 76 | 1012.6 |
| 20260506043907 | 60 | 16 | 4.3 | 13.9 | 0.00 | 0.00 | 0.00 | 76 | 1012.6 |
| 20260506043830 | 60 | 12 | 3.5 | 13.9 | 0.00 | 0.00 | 0.00 | 76 | 1012.5 |
| 20260506043733 | 60 | 32 | 2.6 | 8.7 | 0.00 | 0.00 | 0.00 | 76 | 1012.5 |
| 20260506043559 | 60 | 53 | 3.5 | 8.7 | 0.00 | 0.00 | 0.00 | 76 | 1012.6 |
| 20260506043502 | 60 | 360 | 5.2 | 8.7 | 0.00 | 0.00 | 0.00 | 76 | 1012.6 |
| 20260506043405 | 60 | 357 | 5.2 | 8.7 | 0.00 | 0.00 | 0.00 | 76 | 1012.5 |
| 20260506043309 | 60 | 22 | 4.3 | 7.0 | 0.00 | 0.00 | 0.00 | 76 | 1012.6 |
| 20260506043212 | 60 | 29 | 3.5 | 6.1 | 0.00 | 0.00 | 0.00 | 76 | 1012.6 |
| 20260506043057 | 60 | 37 | 1.7 | 6.1 | 0.00 | 0.00 | 0.00 | 76 | 1012.6 |
| 20260506043003 | 60 | 53 | 0.9 | 11.3 | 0.00 | 0.00 | 0.00 | 76 | 1012.6 |
| 20260506042907 | 60 | 44 | 0.9 | 11.3 | 0.00 | 0.00 | 0.00 | 76 | 1012.6 |
| 20260506042810 | 60 | 41 | 0.9 | 11.3 | 0.00 | 0.00 | 0.00 | 76 | 1012.6 |
| 20260506042653 | 60 | 28 | 0.9 | 11.3 | 0.00 | 0.00 | 0.00 | 76 | 1012.6 |
| 20260506042557 | 60 | 345 | 1.7 | 11.3 | 0.00 | 0.00 | 0.00 | 75 | 1012.6 |
| 20260506042459 | 60 | 353 | 2.6 | 11.3 | 0.00 | 0.00 | 0.00 | 75 | 1012.6 |
| 20260506042406 | 60 | 352 | 2.6 | 12.2 | 0.00 | 0.00 | 0.00 | 75 | 1012.6 |
| 20260506042309 | 60 | 60 | 2.6 | 12.2 | 0.00 | 0.00 | 0.00 | 75 | 1012.6 |
| 20260506042213 | 60 | 8 | 3.5 | 12.2 | 0.00 | 0.00 | 0.00 | 75 | 1012.6 |
| 20260506042057 | 60 | 47 | 1.7 | 12.2 | 0.00 | 0.00 | 0.00 | 75 | 1012.6 |
| 20260506041959 | 60 | 42 | 1.7 | 12.2 | 0.00 | 0.00 | 0.00 | 75 | 1012.6 |
| 20260506041923 | 60 | 44 | 2.6 | 12.2 | 0.00 | 0.00 | 0.00 | 75 | 1012.6 |
| 20260506041826 | 60 | 12 | 3.5 | 12.2 | 0.00 | 0.00 | 0.00 | 75 | 1012.6 |
| 20260506041712 | 60 | 331 | 5.2 | 12.2 | 0.00 | 0.00 | 0.00 | 75 | 1012.5 |
| 20260506041556 | 60 | 23 | 4.3 | 12.2 | 0.00 | 0.00 | 0.00 | 75 | 1012.5 |
| 20260506041458 | 60 | 42 | 3.5 | 12.2 | 0.00 | 0.00 | 0.00 | 75 | 1012.5 |
| 20260506041402 | 60 | 13 | 2.6 | 12.2 | 0.00 | 0.00 | 0.00 | 75 | 1012.5 |
| 20260506041305 | 60 | 79 | 3.5 | 12.2 | 0.00 | 0.00 | 0.00 | 75 | 1012.5 |
| 20260506041209 | 60 | 79 | 4.3 | 12.2 | 0.00 | 0.00 | 0.00 | 75 | 1012.5 |
| 20260506041056 | 60 | 22 | 2.6 | 12.2 | 0.00 | 0.00 | 0.00 | 75 | 1012.6 |
| 20260506040958 | 60 | 37 | 3.5 | 12.2 | 0.00 | 0.00 | 0.00 | 75 | 1012.5 |
| 20260506040902 | 60 | 338 | 5.2 | 12.2 | 0.00 | 0.00 | 0.00 | 75 | 1012.5 |
| 20260506040805 | 60 | 49 | 4.3 | 12.2 | 0.00 | 0.00 | 0.00 | 75 | 1012.5 |
| 20260506040709 | 60 | 33 | 2.6 | 13.9 | 0.00 | 0.00 | 0.00 | 75 | 1012.5 |
| 20260506040556 | 60 | 37 | 2.6 | 9.6 | 0.00 | 0.00 | 0.00 | 75 | 1012.5 |
| 20260506040519 | 60 | 51 | 4.3 | 9.6 | 0.00 | 0.00 | 0.00 | 75 | 1012.6 |
| 20260506040421 | 60 | 342 | 3.5 | 9.6 | 0.00 | 0.00 | 0.00 | 75 | 1012.5 |
| 20260506040304 | 60 | 10 | 3.5 | 9.6 | 0.00 | 0.00 | 0.00 | 75 | 1012.6 |
| 20260506040208 | 60 | 9 | 3.5 | 9.6 | 0.00 | 0.00 | 0.00 | 74 | 1012.6 |
| 20260506040143 | 60 | 33 | 2.6 | 9.6 | 0.00 | 0.00 | 0.00 | 75 | 1012.5 |
| 20260506040007 | 60 | 33 | 1.7 | 9.6 | 0.00 | 0.00 | 0.00 | 74 | 1012.5 |
| 20260506035930 | 60 | 47 | 1.7 | 9.6 | 0.00 | 0.00 | 0.00 | 74 | 1012.5 |
| 20260506035757 | 60 | 347 | 1.7 | 9.6 | 0.00 | 0.00 | 0.00 | 74 | 1012.5 |
| 20260506035701 | 60 | 72 | 2.6 | 9.6 | 0.00 | 0.00 | 0.00 | 74 | 1012.5 |
| 20260506035625 | 60 | 41 | 2.6 | 9.6 | 0.00 | 0.00 | 0.00 | 74 | 1012.5 |
| 20260506035507 | 60 | 56 | 1.7 | 9.6 | 0.00 | 0.00 | 0.00 | 74 | 1012.5 |
| 20260506035410 | 60 | 339 | 4.3 | 9.6 | 0.00 | 0.00 | 0.00 | 74 | 1012.5 |
| 20260506035254 | 60 | 323 | 4.3 | 9.6 | 0.00 | 0.00 | 0.00 | 74 | 1012.5 |
| 20260506035157 | 60 | 9 | 1.7 | 11.3 | 0.00 | 0.00 | 0.00 | 74 | 1012.5 |
| 20260506035105 | 60 | 29 | 2.6 | 11.3 | 0.00 | 0.00 | 0.00 | 74 | 1012.4 |
| 20260506035028 | 60 | 38 | 4.3 | 11.3 | 0.00 | 0.00 | 0.00 | 74 | 1012.4 |
| 20260506034910 | 60 | 60 | 3.5 | 11.3 | 0.00 | 0.00 | 0.00 | 74 | 1012.4 |
| 20260506034813 | 60 | 335 | 2.6 | 11.3 | 0.00 | 0.00 | 0.00 | 74 | 1012.5 |
| 20260506034657 | 60 | 26 | 2.6 | 11.3 | 0.00 | 0.00 | 0.00 | 74 | 1012.5 |
| 20260506034601 | 60 | 37 | 3.5 | 11.3 | 0.00 | 0.00 | 0.00 | 74 | 1012.6 |
| 20260506034508 | 60 | 28 | 4.3 | 11.3 | 0.00 | 0.00 | 0.00 | 74 | 1012.5 |
| 20260506034432 | 60 | 34 | 3.5 | 13.0 | 0.00 | 0.00 | 0.00 | 74 | 1012.5 |
| 20260506034254 | 60 | 41 | 1.7 | 8.7 | 0.00 | 0.00 | 0.00 | 74 | 1012.5 |
| 20260506034158 | 60 | 28 | 2.6 | 8.7 | 0.00 | 0.00 | 0.00 | 74 | 1012.5 |
| 20260506034101 | 60 | 52 | 3.5 | 9.6 | 0.00 | 0.00 | 0.00 | 73 | 1012.5 |
| 20260506034004 | 60 | 37 | 3.5 | 9.6 | 0.00 | 0.00 | 0.00 | 73 | 1012.4 |
| 20260506033907 | 60 | 58 | 3.5 | 11.3 | 0.00 | 0.00 | 0.00 | 73 | 1012.5 |
| 20260506033754 | 60 | 37 | 2.6 | 11.3 | 0.00 | 0.00 | 0.00 | 73 | 1012.4 |
| 20260506033658 | 60 | 59 | 1.7 | 11.3 | 0.00 | 0.00 | 0.00 | 73 | 1012.5 |
| 20260506033602 | 60 | 353 | 1.7 | 11.3 | 0.00 | 0.00 | 0.00 | 73 | 1012.4 |
| 20260506033504 | 60 | 28 | 4.3 | 11.3 | 0.00 | 0.00 | 0.00 | 73 | 1012.4 |
| 20260506033407 | 60 | 33 | 3.5 | 11.3 | 0.00 | 0.00 | 0.00 | 73 | 1012.4 |
| 20260506033255 | 60 | 15 | 2.6 | 11.3 | 0.00 | 0.00 | 0.00 | 73 | 1012.4 |
| 20260506033158 | 60 | 13 | 4.3 | 11.3 | 0.00 | 0.00 | 0.00 | 73 | 1012.4 |
| 20260506033123 | 60 | 347 | 4.3 | 10.4 | 0.00 | 0.00 | 0.00 | 73 | 1012.4 |
| 20260506033005 | 60 | 41 | 4.3 | 10.4 | 0.00 | 0.00 | 0.00 | 73 | 1012.4 |
| 20260506032908 | 60 | 27 | 4.3 | 10.4 | 0.00 | 0.00 | 0.00 | 73 | 1012.4 |
| 20260506032812 | 60 | 28 | 3.5 | 8.7 | 0.00 | 0.00 | 0.00 | 73 | 1012.3 |
| 20260506032655 | 60 | 66 | 2.6 | 8.7 | 0.00 | 0.00 | 0.00 | 73 | 1012.3 |
| 20260506032623 | 60 | 18 | 1.7 | 8.7 | 0.00 | 0.00 | 0.00 | 73 | 1012.3 |
| 20260506032409 | 61 | 1 | 1.7 | 8.7 | 0.00 | 0.00 | 0.00 | 73 | 1012.3 |
| 20260506032312 | 61 | 59 | 1.7 | 8.7 | 0.00 | 0.00 | 0.00 | 72 | 1012.4 |
| 20260506032156 | 61 | 14 | 2.6 | 8.7 | 0.00 | 0.00 | 0.00 | 72 | 1012.3 |
| 20260506032059 | 61 | 352 | 1.7 | 9.6 | 0.00 | 0.00 | 0.00 | 72 | 1012.3 |
| 20260506032006 | 61 | 44 | 0.9 | 8.7 | 0.00 | 0.00 | 0.00 | 72 | 1012.3 |
| 20260506031909 | 61 | 11 | 1.7 | 8.7 | 0.00 | 0.00 | 0.00 | 72 | 1012.4 |
| 20260506031812 | 61 | 58 | 3.5 | 8.7 | 0.00 | 0.00 | 0.00 | 72 | 1012.3 |
| 20260506031655 | 61 | 354 | 1.7 | 8.7 | 0.00 | 0.00 | 0.00 | 72 | 1012.3 |
| 20260506031620 | 61 | 340 | 1.7 | 8.7 | 0.00 | 0.00 | 0.00 | 72 | 1012.3 |
| 20260506031501 | 61 | 42 | 2.6 | 8.7 | 0.00 | 0.00 | 0.00 | 73 | 1012.4 |
| 20260506031405 | 60 | 25 | 3.5 | 8.7 | 0.00 | 0.00 | 0.00 | 72 | 1012.3 |
| 20260506031312 | 60 | 46 | 2.6 | 8.7 | 0.00 | 0.00 | 0.00 | 72 | 1012.3 |
| 20260506031156 | 61 | 353 | 1.7 | 8.7 | 0.00 | 0.00 | 0.00 | 72 | 1012.3 |
| 20260506031059 | 61 | 50 | 2.6 | 11.3 | 0.00 | 0.00 | 0.00 | 72 | 1012.3 |
| 20260506031022 | 61 | 28 | 1.7 | 11.3 | 0.00 | 0.00 | 0.00 | 72 | 1012.2 |
| 20260506030925 | 61 | 15 | 1.7 | 11.3 | 0.00 | 0.00 | 0.00 | 72 | 1012.3 |
| 20260506030807 | 61 | 35 | 1.7 | 11.3 | 0.00 | 0.00 | 0.00 | 72 | 1012.3 |
| 20260506030654 | 61 | 40 | 1.7 | 11.3 | 0.00 | 0.00 | 0.00 | 72 | 1012.3 |
| 20260506030620 | 61 | 47 | 3.5 | 11.3 | 0.00 | 0.00 | 0.00 | 71 | 1012.3 |
| 20260506030501 | 61 | 39 | 4.3 | 11.3 | 0.00 | 0.00 | 0.00 | 71 | 1012.3 |
| 20260506030404 | 61 | 352 | 3.5 | 11.3 | 0.00 | 0.00 | 0.00 | 71 | 1012.3 |
| 20260506030308 | 61 | 337 | 2.6 | 11.3 | 0.00 | 0.00 | 0.00 | 71 | 1012.3 |
| 20260506030212 | 61 | 61 | 3.5 | 12.2 | 0.00 | 0.00 | 0.00 | 71 | 1012.3 |
| 20260506030126 | 61 | 29 | 2.6 | 8.7 | 0.00 | 0.00 | 0.00 | 71 | 1012.3 |
| 20260506025955 | 61 | 59 | 0.9 | 7.8 | 0.00 | 0.00 | 0.00 | 71 | 1012.4 |
| 20260506025858 | 61 | 23 | 1.7 | 7.8 | 0.00 | 0.00 | 0.00 | 71 | 1012.4 |
| 20260506025801 | 61 | 57 | 1.7 | 11.3 | 0.00 | 0.00 | 0.00 | 71 | 1012.3 |
| 20260506025705 | 61 | 32 | 0.9 | 11.3 | 0.00 | 0.00 | 0.00 | 71 | 1012.3 |
| 20260506025609 | 61 | 41 | 2.6 | 11.3 | 0.00 | 0.00 | 0.00 | 71 | 1012.4 |
| 20260506025512 | 61 | 70 | 2.6 | 11.3 | 0.00 | 0.00 | 0.00 | 71 | 1012.3 |
| 20260506025358 | 61 | 11 | 2.6 | 11.3 | 0.00 | 0.00 | 0.00 | 70 | 1012.4 |
| 20260506025305 | 61 | 341 | 3.5 | 11.3 | 0.00 | 0.00 | 0.00 | 71 | 1012.3 |
| 20260506025206 | 61 | 353 | 4.3 | 11.3 | 0.00 | 0.00 | 0.00 | 70 | 1012.4 |
| 20260506025110 | 61 | 30 | 5.2 | 11.3 | 0.00 | 0.00 | 0.00 | 70 | 1012.3 |
| 20260506025012 | 61 | 58 | 4.3 | 11.3 | 0.00 | 0.00 | 0.00 | 70 | 1012.3 |
| 20260506024855 | 61 | 52 | 1.7 | 11.3 | 0.00 | 0.00 | 0.00 | 70 | 1012.4 |
| 20260506024802 | 61 | 55 | 1.7 | 11.3 | 0.00 | 0.00 | 0.00 | 70 | 1012.3 |
| 20260506024706 | 61 | 42 | 3.5 | 11.3 | 0.00 | 0.00 | 0.00 | 70 | 1012.3 |
| 20260506024631 | 61 | 30 | 4.3 | 11.3 | 0.00 | 0.00 | 0.00 | 70 | 1012.3 |
| 20260506024533 | 61 | 348 | 5.2 | 11.3 | 0.00 | 0.00 | 0.00 | 70 | 1012.3 |
| 20260506024355 | 61 | 56 | 4.3 | 12.2 | 0.00 | 0.00 | 0.00 | 70 | 1012.4 |
| 20260506024319 | 61 | 59 | 1.7 | 11.3 | 0.00 | 0.00 | 0.00 | 70 | 1012.3 |
| 20260506024201 | 61 | 77 | 0.9 | 11.3 | 0.00 | 0.00 | 0.00 | 70 | 1012.3 |
| 20260506024109 | 61 | 37 | 2.6 | 11.3 | 0.00 | 0.00 | 0.00 | 70 | 1012.3 |
| 20260506024011 | 61 | 42 | 2.6 | 11.3 | 0.00 | 0.00 | 0.00 | 70 | 1012.2 |
| 20260506023855 | 61 | 29 | 2.6 | 11.3 | 0.00 | 0.00 | 0.00 | 71 | 1012.3 |
| 20260506023758 | 61 | 22 | 5.2 | 11.3 | 0.00 | 0.00 | 0.00 | 71 | 1012.3 |
| 20260506023701 | 61 | 34 | 5.2 | 10.4 | 0.00 | 0.00 | 0.00 | 71 | 1012.3 |
| 20260506023606 | 61 | 44 | 3.5 | 10.4 | 0.00 | 0.00 | 0.00 | 71 | 1012.3 |
| 20260506023513 | 61 | 347 | 1.7 | 10.4 | 0.00 | 0.00 | 0.00 | 71 | 1012.3 |
| 20260506023356 | 61 | 353 | 2.6 | 10.4 | 0.00 | 0.00 | 0.00 | 71 | 1012.3 |
| 20260506023259 | 61 | 23 | 2.6 | 10.4 | 0.00 | 0.00 | 0.00 | 71 | 1012.4 |
| 20260506023223 | 61 | 335 | 2.6 | 10.4 | 0.00 | 0.00 | 0.00 | 71 | 1012.3 |
| 20260506023106 | 61 | 63 | 1.7 | 10.4 | 0.00 | 0.00 | 0.00 | 71 | 1012.3 |
| 20260506023008 | 61 | 44 | 3.5 | 10.4 | 0.00 | 0.00 | 0.00 | 71 | 1012.3 |
| 20260506022856 | 61 | 33 | 2.6 | 11.3 | 0.00 | 0.00 | 0.00 | 71 | 1012.4 |
| 20260506022759 | 61 | 348 | 0.9 | 7.8 | 0.00 | 0.00 | 0.00 | 71 | 1012.3 |
| 20260506022702 | 61 | 333 | 2.6 | 7.8 | 0.00 | 0.00 | 0.00 | 71 | 1012.4 |
| 20260506022607 | 61 | 22 | 2.6 | 7.8 | 0.00 | 0.00 | 0.00 | 71 | 1012.4 |
| 20260506022509 | 61 | 20 | 0.9 | 11.3 | 0.00 | 0.00 | 0.00 | 71 | 1012.4 |
| 20260506022413 | 61 | 10 | 1.7 | 11.3 | 0.00 | 0.00 | 0.00 | 71 | 1012.4 |
| 20260506022300 | 61 | 35 | 2.6 | 11.3 | 0.00 | 0.00 | 0.00 | 71 | 1012.3 |
| 20260506022204 | 61 | 51 | 1.7 | 11.3 | 0.00 | 0.00 | 0.00 | 71 | 1012.3 |
| 20260506022108 | 61 | 13 | 0.9 | 11.3 | 0.00 | 0.00 | 0.00 | 71 | 1012.4 |
| 20260506022010 | 61 | 16 | 2.6 | 11.3 | 0.00 | 0.00 | 0.00 | 71 | 1012.3 |
| 20260506021914 | 61 | 40 | 2.6 | 11.3 | 0.00 | 0.00 | 0.00 | 71 | 1012.3 |
| 20260506021817 | 61 | 89 | 3.5 | 11.3 | 0.00 | 0.00 | 0.00 | 71 | 1012.3 |
| 20260506021659 | 61 | 4 | 5.2 | 13.0 | 0.00 | 0.00 | 0.00 | 71 | 1012.3 |
| 20260506021607 | 61 | 345 | 4.3 | 10.4 | 0.00 | 0.00 | 0.00 | 71 | 1012.4 |
| 20260506021509 | 61 | 35 | 2.6 | 10.4 | 0.00 | 0.00 | 0.00 | 71 | 1012.3 |
| 20260506021433 | 61 | 44 | 3.5 | 10.4 | 0.00 | 0.00 | 0.00 | 71 | 1012.3 |
| 20260506021256 | 61 | 12 | 3.5 | 10.4 | 0.00 | 0.00 | 0.00 | 70 | 1012.3 |
| 20260506021159 | 61 | 14 | 2.6 | 10.4 | 0.00 | 0.00 | 0.00 | 70 | 1012.2 |
| 20260506021103 | 61 | 28 | 4.3 | 10.4 | 0.00 | 0.00 | 0.00 | 70 | 1012.3 |
| 20260506021009 | 61 | 340 | 4.3 | 10.4 | 0.00 | 0.00 | 0.00 | 70 | 1012.3 |
| 20260506020913 | 61 | 315 | 4.3 | 10.4 | 0.00 | 0.00 | 0.00 | 71 | 1012.2 |
| 20260506020756 | 61 | 9 | 5.2 | 10.4 | 0.00 | 0.00 | 0.00 | 71 | 1012.2 |
| 20260506020659 | 61 | 333 | 4.3 | 9.6 | 0.00 | 0.00 | 0.00 | 71 | 1012.3 |
| 20260506020603 | 61 | 32 | 2.6 | 9.6 | 0.00 | 0.00 | 0.00 | 71 | 1012.3 |
| 20260506020526 | 61 | 65 | 2.6 | 9.6 | 0.00 | 0.00 | 0.00 | 71 | 1012.3 |
| 20260506020407 | 61 | 39 | 3.5 | 9.6 | 0.00 | 0.00 | 0.00 | 71 | 1012.3 |
| 20260506020254 | 61 | 58 | 1.7 | 9.6 | 0.00 | 0.00 | 0.00 | 70 | 1012.2 |
| 20260506020158 | 61 | 17 | 1.7 | 9.6 | 0.00 | 0.00 | 0.00 | 70 | 1012.2 |
| 20260506020113 | 61 | 45 | 3.5 | 12.2 | 0.00 | 0.00 | 0.00 | 71 | 1012.2 |
| 20260506015958 | 61 | 51 | 3.5 | 12.2 | 0.00 | 0.00 | 0.00 | 71 | 1012.3 |
| 20260506015902 | 61 | 50 | 2.6 | 12.2 | 0.00 | 0.00 | 0.00 | 71 | 1012.3 |
| 20260506015825 | 61 | 11 | 3.5 | 12.2 | 0.00 | 0.00 | 0.00 | 71 | 1012.3 |
| 20260506015728 | 61 | 44 | 3.5 | 12.2 | 0.00 | 0.00 | 0.00 | 71 | 1012.2 |
| 20260506015555 | 61 | 18 | 3.5 | 12.2 | 0.00 | 0.00 | 0.00 | 71 | 1012.2 |
| 20260506015457 | 61 | 56 | 2.6 | 12.2 | 0.00 | 0.00 | 0.00 | 71 | 1012.2 |
| 20260506015400 | 61 | 38 | 4.3 | 12.2 | 0.00 | 0.00 | 0.00 | 71 | 1012.2 |
| 20260506015306 | 61 | 51 | 4.3 | 13.0 | 0.00 | 0.00 | 0.00 | 71 | 1012.1 |
| 20260506015208 | 61 | 25 | 5.2 | 10.4 | 0.00 | 0.00 | 0.00 | 71 | 1012.1 |
| 20260506015056 | 61 | 65 | 5.2 | 10.4 | 0.00 | 0.00 | 0.00 | 71 | 1012.1 |
| 20260506014959 | 61 | 13 | 3.5 | 10.4 | 0.00 | 0.00 | 0.00 | 71 | 1012.1 |
| 20260506014902 | 61 | 320 | 1.7 | 10.4 | 0.00 | 0.00 | 0.00 | 71 | 1012.1 |
| 20260506014826 | 61 | 57 | 0.9 | 10.4 | 0.00 | 0.00 | 0.00 | 71 | 1012.2 |
| 20260506014729 | 61 | 339 | 1.7 | 10.4 | 0.00 | 0.00 | 0.00 | 71 | 1012.2 |
| 20260506014631 | 61 | 22 | 2.6 | 10.4 | 0.00 | 0.00 | 0.00 | 71 | 1012.3 |
| 20260506014513 | 61 | 47 | 2.6 | 10.4 | 0.00 | 0.00 | 0.00 | 71 | 1012.3 |
| 20260506014416 | 61 | 35 | 4.3 | 10.4 | 0.00 | 0.00 | 0.00 | 71 | 1012.3 |
| 20260506014303 | 61 | 28 | 4.3 | 10.4 | 0.00 | 0.00 | 0.00 | 71 | 1012.3 |
| 20260506014206 | 61 | 8 | 3.5 | 7.8 | 0.00 | 0.00 | 0.00 | 71 | 1012.3 |
| 20260506014110 | 61 | 47 | 3.5 | 7.8 | 0.00 | 0.00 | 0.00 | 71 | 1012.3 |
| 20260506014013 | 61 | 39 | 3.5 | 7.8 | 0.00 | 0.00 | 0.00 | 71 | 1012.3 |
| 20260506013916 | 61 | 76 | 3.5 | 7.8 | 0.00 | 0.00 | 0.00 | 71 | 1012.3 |
| 20260506013758 | 61 | 13 | 1.7 | 7.8 | 0.00 | 0.00 | 0.00 | 71 | 1012.3 |
| 20260506013722 | 61 | 13 | 0.9 | 7.8 | 0.00 | 0.00 | 0.00 | 71 | 1012.4 |
| 20260506013609 | 61 | 44 | 1.7 | 8.7 | 0.00 | 0.00 | 0.00 | 71 | 1012.4 |
| 20260506013511 | 61 | 35 | 3.5 | 12.2 | 0.00 | 0.00 | 0.00 | 71 | 1012.3 |
| 20260506013355 | 61 | 349 | 3.5 | 12.2 | 0.00 | 0.00 | 0.00 | 71 | 1012.4 |
| 20260506013258 | 61 | 359 | 3.5 | 12.2 | 0.00 | 0.00 | 0.00 | 71 | 1012.4 |
| 20260506013202 | 61 | 20 | 2.6 | 12.2 | 0.00 | 0.00 | 0.00 | 71 | 1012.4 |
| 20260506013105 | 61 | 50 | 2.6 | 12.2 | 0.00 | 0.00 | 0.00 | 71 | 1012.3 |
| 20260506013012 | 61 | 18 | 1.7 | 12.2 | 0.00 | 0.00 | 0.00 | 71 | 1012.2 |
| 20260506012855 | 61 | 76 | 2.6 | 12.2 | 0.00 | 0.00 | 0.00 | 71 | 1012.3 |
| 20260506012819 | 61 | 44 | 5.2 | 12.2 | 0.00 | 0.00 | 0.00 | 71 | 1012.3 |
| 20260506012722 | 61 | 12 | 5.2 | 12.2 | 0.00 | 0.00 | 0.00 | 71 | 1012.2 |
| 20260506012604 | 61 | 25 | 2.6 | 8.7 | 0.00 | 0.00 | 0.00 | 71 | 1012.2 |
| 20260506012507 | 61 | 76 | 0.9 | 7.8 | 0.00 | 0.00 | 0.00 | 71 | 1012.1 |
| 20260506012410 | 61 | 16 | 1.7 | 8.7 | 0.00 | 0.00 | 0.00 | 71 | 1012.1 |
| 20260506012257 | 61 | 72 | 3.5 | 8.7 | 0.00 | 0.00 | 0.00 | 71 | 1012.1 |
| 20260506012201 | 61 | 23 | 2.6 | 8.7 | 0.00 | 0.00 | 0.00 | 71 | 1012.1 |
| 20260506012105 | 61 | 39 | 1.7 | 8.7 | 0.00 | 0.00 | 0.00 | 71 | 1012.1 |
| 20260506012007 | 61 | 141 | 2.6 | 8.7 | 0.00 | 0.00 | 0.00 | 71 | 1012.1 |
| 20260506011910 | 61 | 9 | 3.5 | 8.7 | 0.00 | 0.00 | 0.00 | 71 | 1012.0 |
| 20260506011754 | 61 | 77 | 3.5 | 8.7 | 0.00 | 0.00 | 0.00 | 71 | 1012.0 |
| 20260506011702 | 61 | 13 | 2.6 | 8.7 | 0.00 | 0.00 | 0.00 | 71 | 1012.0 |
| 20260506011626 | 61 | 53 | 2.6 | 10.4 | 0.00 | 0.00 | 0.00 | 71 | 1011.9 |
| 20260506011528 | 61 | 8 | 2.6 | 10.4 | 0.00 | 0.00 | 0.00 | 71 | 1011.9 |
| 20260506011431 | 61 | 356 | 2.6 | 10.4 | 0.00 | 0.00 | 0.00 | 71 | 1011.9 |
| 20260506011334 | 61 | 345 | 2.6 | 10.4 | 0.00 | 0.00 | 0.00 | 71 | 1011.9 |
| 20260506011156 | 61 | 43 | 2.6 | 10.4 | 0.00 | 0.00 | 0.00 | 71 | 1011.9 |
| 20260506011100 | 61 | 352 | 2.6 | 10.4 | 0.00 | 0.00 | 0.00 | 71 | 1011.9 |
| 20260506011022 | 61 | 32 | 2.6 | 10.4 | 0.00 | 0.00 | 0.00 | 71 | 1011.9 |
| 20260506010909 | 61 | 336 | 3.5 | 10.4 | 0.00 | 0.00 | 0.00 | 71 | 1011.9 |
| 20260506010812 | 61 | 22 | 2.6 | 10.4 | 0.00 | 0.00 | 0.00 | 71 | 1011.9 |
| 20260506010656 | 61 | 25 | 1.7 | 7.0 | 0.00 | 0.00 | 0.00 | 71 | 1011.9 |
| 20260506010600 | 61 | 44 | 2.6 | 8.7 | 0.00 | 0.00 | 0.00 | 71 | 1011.9 |
| 20260506010503 | 61 | 32 | 0.9 | 8.7 | 0.00 | 0.00 | 0.00 | 71 | 1011.8 |
| 20260506010406 | 61 | 47 | 0.9 | 13.0 | 0.00 | 0.00 | 0.00 | 71 | 1011.9 |
| 20260506010253 | 61 | 39 | 1.7 | 13.0 | 0.00 | 0.00 | 0.00 | 70 | 1011.9 |
| 20260506010157 | 61 | 25 | 2.6 | 13.0 | 0.00 | 0.00 | 0.00 | 70 | 1011.9 |
| 20260506010132 | 61 | 10 | 2.6 | 13.0 | 0.00 | 0.00 | 0.00 | 70 | 1011.9 |
| 20260506005956 | 61 | 18 | 2.6 | 13.0 | 0.00 | 0.00 | 0.00 | 70 | 1011.9 |
| 20260506005900 | 61 | 359 | 1.7 | 13.0 | 0.00 | 0.00 | 0.00 | 70 | 1011.8 |
| 20260506005803 | 61 | 25 | 2.6 | 13.0 | 0.00 | 0.00 | 0.00 | 70 | 1011.9 |
| 20260506005711 | 61 | 29 | 4.3 | 13.0 | 0.00 | 0.00 | 0.00 | 70 | 1011.8 |
| 20260506005614 | 61 | 42 | 5.2 | 13.0 | 0.00 | 0.00 | 0.00 | 70 | 1011.8 |
| 20260506005457 | 61 | 10 | 4.3 | 13.0 | 0.00 | 0.00 | 0.00 | 70 | 1011.9 |
| 20260506005400 | 61 | 20 | 3.5 | 13.0 | 0.00 | 0.00 | 0.00 | 69 | 1011.8 |
| 20260506005305 | 62 | 48 | 4.3 | 13.0 | 0.00 | 0.00 | 0.00 | 69 | 1011.8 |
| 20260506005207 | 62 | 341 | 3.5 | 13.0 | 0.00 | 0.00 | 0.00 | 69 | 1011.8 |
| 20260506005055 | 62 | 40 | 0.9 | 13.0 | 0.00 | 0.00 | 0.00 | 69 | 1011.9 |
| 20260506004958 | 62 | 32 | 1.7 | 13.0 | 0.00 | 0.00 | 0.00 | 69 | 1011.9 |
| 20260506004901 | 62 | 58 | 2.6 | 13.0 | 0.00 | 0.00 | 0.00 | 69 | 1011.8 |
| 20260506004825 | 62 | 40 | 4.3 | 13.0 | 0.00 | 0.00 | 0.00 | 69 | 1011.9 |
| 20260506004707 | 62 | 314 | 3.5 | 12.2 | 0.00 | 0.00 | 0.00 | 69 | 1011.9 |
| 20260506004611 | 62 | 44 | 1.7 | 11.3 | 0.00 | 0.00 | 0.00 | 69 | 1011.8 |
| 20260506004458 | 62 | 47 | 2.6 | 11.3 | 0.00 | 0.00 | 0.00 | 69 | 1011.7 |
| 20260506004401 | 62 | 67 | 2.6 | 11.3 | 0.00 | 0.00 | 0.00 | 69 | 1011.7 |
| 20260506004305 | 62 | 23 | 3.5 | 11.3 | 0.00 | 0.00 | 0.00 | 69 | 1011.7 |
| 20260506004208 | 62 | 42 | 2.6 | 11.3 | 0.00 | 0.00 | 0.00 | 69 | 1011.7 |
| 20260506004113 | 62 | 29 | 1.7 | 11.3 | 0.00 | 0.00 | 0.00 | 69 | 1011.7 |
| 20260506003955 | 62 | 336 | 4.3 | 11.3 | 0.00 | 0.00 | 0.00 | 69 | 1011.7 |
| 20260506003902 | 62 | 47 | 4.3 | 11.3 | 0.00 | 0.00 | 0.00 | 69 | 1011.6 |
| 20260506003806 | 62 | 60 | 2.6 | 12.2 | 0.00 | 0.00 | 0.00 | 69 | 1011.7 |
| 20260506003730 | 62 | 55 | 0.9 | 12.2 | 0.00 | 0.00 | 0.00 | 69 | 1011.6 |
| 20260506003612 | 62 | 316 | 1.7 | 12.2 | 0.00 | 0.00 | 0.00 | 69 | 1011.6 |
| 20260506003455 | 62 | 54 | 3.5 | 12.2 | 0.00 | 0.00 | 0.00 | 69 | 1011.6 |
| 20260506003358 | 62 | 28 | 3.5 | 12.2 | 0.00 | 0.00 | 0.00 | 69 | 1011.6 |
| 20260506003323 | 62 | 76 | 1.7 | 12.2 | 0.00 | 0.00 | 0.00 | 69 | 1011.7 |
| 20260506003209 | 62 | 335 | 1.7 | 12.2 | 0.00 | 0.00 | 0.00 | 69 | 1011.6 |
| 20260506003133 | 62 | 49 | 4.3 | 12.2 | 0.00 | 0.00 | 0.00 | 69 | 1011.6 |
| 20260506002955 | 62 | 3 | 4.3 | 13.0 | 0.00 | 0.00 | 0.00 | 69 | 1011.6 |
| 20260506002919 | 62 | 40 | 4.3 | 13.0 | 0.00 | 0.00 | 0.00 | 69 | 1011.4 |
| 20260506002801 | 62 | 23 | 4.3 | 13.0 | 0.00 | 0.00 | 0.00 | 69 | 1011.6 |
| 20260506002704 | 62 | 40 | 4.3 | 13.0 | 0.00 | 0.00 | 0.00 | 70 | 1011.5 |
| 20260506002608 | 62 | 68 | 4.3 | 13.0 | 0.00 | 0.00 | 0.00 | 70 | 1011.5 |
| 20260506002454 | 62 | 326 | 4.3 | 13.0 | 0.00 | 0.00 | 0.00 | 70 | 1011.4 |
| 20260506002358 | 62 | 35 | 2.6 | 13.0 | 0.00 | 0.00 | 0.00 | 70 | 1011.4 |
| 20260506002301 | 62 | 139 | 3.5 | 13.0 | 0.00 | 0.00 | 0.00 | 70 | 1011.4 |
| 20260506002205 | 62 | 70 | 3.5 | 13.0 | 0.00 | 0.00 | 0.00 | 70 | 1011.3 |
| 20260506002108 | 62 | 40 | 2.6 | 7.8 | 0.00 | 0.00 | 0.00 | 70 | 1011.3 |
| 20260506002011 | 62 | 23 | 4.3 | 7.8 | 0.00 | 0.00 | 0.00 | 70 | 1011.2 |
| 20260506001858 | 62 | 345 | 3.5 | 7.8 | 0.00 | 0.00 | 0.00 | 70 | 1011.3 |
| 20260506001802 | 62 | 79 | 4.3 | 11.3 | 0.00 | 0.00 | 0.00 | 70 | 1011.2 |
| 20260506001725 | 62 | 353 | 4.3 | 11.3 | 0.00 | 0.00 | 0.00 | 70 | 1011.3 |
| 20260506001609 | 62 | 59 | 2.6 | 11.3 | 0.00 | 0.00 | 0.00 | 70 | 1011.3 |
| 20260506001512 | 62 | 30 | 0.9 | 11.3 | 0.00 | 0.00 | 0.00 | 70 | 1011.2 |
| 20260506001355 | 62 | 67 | 1.7 | 11.3 | 0.00 | 0.00 | 0.00 | 70 | 1011.2 |
| 20260506001302 | 62 | 16 | 2.6 | 12.2 | 0.00 | 0.00 | 0.00 | 70 | 1011.2 |
| 20260506001206 | 62 | 50 | 1.7 | 12.2 | 0.00 | 0.00 | 0.00 | 69 | 1011.2 |
| 20260506001109 | 62 | 338 | 3.5 | 12.2 | 0.00 | 0.00 | 0.00 | 70 | 1011.1 |
| 20260506001012 | 62 | 359 | 5.2 | 12.2 | 0.00 | 0.00 | 0.00 | 70 | 1011.1 |
| 20260506000855 | 62 | 28 | 3.5 | 12.2 | 0.00 | 0.00 | 0.00 | 70 | 1011.1 |
| 20260506000759 | 62 | 33 | 2.6 | 12.2 | 0.00 | 0.00 | 0.00 | 70 | 1011.1 |
| 20260506000706 | 62 | 333 | 2.6 | 12.2 | 0.00 | 0.00 | 0.00 | 70 | 1011.1 |
| 20260506000611 | 62 | 38 | 4.3 | 12.2 | 0.00 | 0.00 | 0.00 | 70 | 1011.1 |
| 20260506000534 | 62 | 44 | 4.3 | 12.2 | 0.00 | 0.00 | 0.00 | 70 | 1011.1 |
| 20260506000356 | 62 | 13 | 1.7 | 12.2 | 0.00 | 0.00 | 0.00 | 70 | 1011.0 |
| 20260506000319 | 62 | 38 | 3.5 | 12.2 | 0.00 | 0.00 | 0.00 | 70 | 1011.0 |
| 20260506000204 | 62 | 62 | 2.6 | 12.2 | 0.00 | 0.00 | 0.00 | 70 | 1010.9 |
| 20260506000116 | 62 | 9 | 0.9 | 12.2 | 0.00 | 0.00 | 0.00 | 70 | 1010.8 |
| 20260506000005 | 62 | 37 | 2.6 | 12.2 | 0.00 | 0.00 | 0.00 | 70 | 1010.9 |
| 20260505235908 | 62 | 20 | 3.5 | 12.2 | 0.00 | 0.00 | 0.00 | 70 | 1010.9 |
| 20260505235832 | 62 | 1 | 1.7 | 12.2 | 0.00 | 0.00 | 0.00 | 70 | 1010.8 |
| 20260505235655 | 62 | 23 | 1.7 | 12.2 | 0.00 | 0.00 | 0.00 | 70 | 1010.8 |
| 20260505235558 | 62 | 340 | 2.6 | 12.2 | 0.00 | 0.00 | 0.00 | 70 | 1010.8 |
| 20260505235501 | 62 | 65 | 2.6 | 13.9 | 0.00 | 0.00 | 0.00 | 70 | 1010.8 |
| 20260505235404 | 62 | 91 | 1.7 | 14.8 | 0.00 | 0.00 | 0.00 | 70 | 1010.8 |
| 20260505235312 | 62 | 46 | 0.9 | 14.8 | 0.00 | 0.00 | 0.00 | 70 | 1010.8 |
| 20260505235155 | 62 | 30 | 2.6 | 14.8 | 0.00 | 0.00 | 0.00 | 70 | 1010.8 |
| 20260505235120 | 62 | 25 | 3.5 | 14.8 | 0.00 | 0.00 | 0.00 | 70 | 1010.7 |
| 20260505235022 | 62 | 341 | 5.2 | 14.8 | 0.00 | 0.00 | 0.00 | 70 | 1010.7 |
| 20260505234904 | 62 | 60 | 5.2 | 14.8 | 0.00 | 0.00 | 0.00 | 70 | 1010.8 |
| 20260505234808 | 62 | 359 | 4.3 | 14.8 | 0.00 | 0.00 | 0.00 | 70 | 1010.7 |
| 20260505234654 | 62 | 30 | 3.5 | 14.8 | 0.00 | 0.00 | 0.00 | 70 | 1010.7 |
| 20260505234618 | 62 | 349 | 1.7 | 14.8 | 0.00 | 0.00 | 0.00 | 70 | 1010.6 |
| 20260505234459 | 62 | 59 | 0.0 | 12.2 | 0.00 | 0.00 | 0.00 | 70 | 1010.7 |
| 20260505234403 | 62 | 28 | 1.7 | 12.2 | 0.00 | 0.00 | 0.00 | 70 | 1010.7 |
| 20260505234306 | 62 | 56 | 3.5 | 12.2 | 0.00 | 0.00 | 0.00 | 70 | 1010.7 |
| 20260505234210 | 62 | 16 | 4.3 | 12.2 | 0.00 | 0.00 | 0.00 | 70 | 1010.7 |
| 20260505234113 | 62 | 39 | 2.6 | 12.2 | 0.00 | 0.00 | 0.00 | 70 | 1010.7 |
| 20260505233959 | 62 | 30 | 0.9 | 9.6 | 0.00 | 0.00 | 0.00 | 70 | 1010.6 |
| 20260505233903 | 62 | 12 | 1.7 | 9.6 | 0.00 | 0.00 | 0.00 | 70 | 1010.6 |
| 20260505233827 | 62 | 342 | 1.7 | 10.4 | 0.00 | 0.00 | 0.00 | 70 | 1010.6 |
| 20260505233709 | 62 | 22 | 3.5 | 7.8 | 0.00 | 0.00 | 0.00 | 70 | 1010.6 |
| 20260505233634 | 62 | 336 | 4.3 | 7.8 | 0.00 | 0.00 | 0.00 | 70 | 1010.6 |
| 20260505233455 | 62 | 42 | 2.6 | 7.8 | 0.00 | 0.00 | 0.00 | 70 | 1010.6 |
| 20260505233419 | 62 | 28 | 2.6 | 7.0 | 0.00 | 0.00 | 0.00 | 70 | 1010.5 |
| 20260505233322 | 62 | 21 | 2.6 | 9.6 | 0.00 | 0.00 | 0.00 | 70 | 1010.6 |
| 20260505233229 | 62 | 355 | 2.6 | 9.6 | 0.00 | 0.00 | 0.00 | 70 | 1010.6 |
| 20260505233112 | 62 | 347 | 1.7 | 9.6 | 0.00 | 0.00 | 0.00 | 70 | 1010.6 |
| 20260505232954 | 62 | 25 | 2.6 | 9.6 | 0.00 | 0.00 | 0.00 | 70 | 1010.6 |
| 20260505232918 | 62 | 321 | 1.7 | 9.6 | 0.00 | 0.00 | 0.00 | 70 | 1010.6 |
| 20260505232800 | 62 | 41 | 0.9 | 9.6 | 0.00 | 0.00 | 0.00 | 70 | 1010.6 |
| 20260505232703 | 62 | 68 | 1.7 | 9.6 | 0.00 | 0.00 | 0.00 | 70 | 1010.6 |
| 20260505232607 | 62 | 350 | 3.5 | 9.6 | 0.00 | 0.00 | 0.00 | 70 | 1010.6 |
| 20260505232513 | 62 | 25 | 3.5 | 9.6 | 0.00 | 0.00 | 0.00 | 70 | 1010.6 |
| 20260505232357 | 62 | 16 | 2.6 | 8.7 | 0.00 | 0.00 | 0.00 | 70 | 1010.6 |
| 20260505232321 | 62 | 12 | 2.6 | 8.7 | 0.00 | 0.00 | 0.00 | 70 | 1010.6 |
| 20260505232203 | 62 | 25 | 1.7 | 8.7 | 0.00 | 0.00 | 0.00 | 70 | 1010.6 |
| 20260505232108 | 62 | 18 | 1.7 | 9.6 | 0.00 | 0.00 | 0.00 | 70 | 1010.5 |
| 20260505232010 | 62 | 357 | 1.7 | 8.7 | 0.00 | 0.00 | 0.00 | 70 | 1010.6 |
| 20260505231858 | 62 | 100 | 0.9 | 8.7 | 0.00 | 0.00 | 0.00 | 70 | 1010.5 |
| 20260505231821 | 63 | 8 | 1.7 | 12.2 | 0.00 | 0.00 | 0.00 | 70 | 1010.6 |
| 20260505231704 | 63 | 8 | 1.7 | 13.0 | 0.00 | 0.00 | 0.00 | 70 | 1010.5 |
| 20260505231607 | 63 | 347 | 3.5 | 13.0 | 0.00 | 0.00 | 0.00 | 70 | 1010.5 |
| 20260505231510 | 63 | 51 | 3.5 | 13.0 | 0.00 | 0.00 | 0.00 | 69 | 1010.5 |
| 20260505231414 | 63 | 19 | 1.7 | 13.0 | 0.00 | 0.00 | 0.00 | 69 | 1010.5 |
| 20260505231317 | 63 | 355 | 1.7 | 13.0 | 0.00 | 0.00 | 0.00 | 69 | 1010.5 |
| 20260505231203 | 63 | 13 | 2.6 | 13.0 | 0.00 | 0.00 | 0.00 | 69 | 1010.5 |
| 20260505231107 | 63 | 342 | 5.2 | 13.0 | 0.00 | 0.00 | 0.00 | 69 | 1010.5 |
| 20260505231031 | 63 | 4 | 4.3 | 13.0 | 0.00 | 0.00 | 0.00 | 69 | 1010.4 |
| 20260505230913 | 63 | 23 | 2.6 | 10.4 | 0.00 | 0.00 | 0.00 | 69 | 1010.4 |
| 20260505230756 | 63 | 68 | 5.2 | 10.4 | 0.00 | 0.00 | 0.00 | 68 | 1010.4 |
| 20260505230700 | 63 | 15 | 5.2 | 10.4 | 0.00 | 0.00 | 0.00 | 68 | 1010.2 |
| 20260505230625 | 63 | 37 | 4.3 | 10.4 | 0.00 | 0.00 | 0.00 | 68 | 1010.4 |
| 20260505230531 | 63 | 74 | 2.6 | 12.2 | 0.00 | 0.00 | 0.00 | 68 | 1010.3 |
| 20260505230433 | 63 | 18 | 3.5 | 10.4 | 0.00 | 0.00 | 0.00 | 68 | 1010.3 |
| 20260505230255 | 63 | 332 | 4.3 | 11.3 | 0.00 | 0.00 | 0.00 | 68 | 1010.3 |
| 20260505230159 | 63 | 9 | 6.1 | 11.3 | 0.00 | 0.00 | 0.00 | 67 | 1010.3 |
| 20260505230132 | 63 | 44 | 5.2 | 11.3 | 0.00 | 0.00 | 0.00 | 67 | 1010.3 |
| 20260505225956 | 64 | 333 | 1.7 | 13.9 | 0.00 | 0.00 | 0.00 | 67 | 1010.2 |
| 20260505225900 | 64 | 19 | 0.9 | 13.9 | 0.00 | 0.00 | 0.00 | 67 | 1010.2 |
| 20260505225807 | 64 | 35 | 1.7 | 13.9 | 0.00 | 0.00 | 0.00 | 67 | 1010.2 |
| 20260505225711 | 64 | 77 | 2.6 | 13.9 | 0.00 | 0.00 | 0.00 | 67 | 1010.2 |
| 20260505225615 | 64 | 22 | 4.3 | 13.9 | 0.00 | 0.00 | 0.00 | 67 | 1010.1 |
| 20260505225457 | 64 | 89 | 3.5 | 13.9 | 0.00 | 0.00 | 0.00 | 67 | 1010.1 |
| 20260505225400 | 64 | 70 | 3.5 | 13.9 | 0.00 | 0.00 | 0.00 | 66 | 1010.0 |
| 20260505225306 | 64 | 333 | 5.2 | 13.9 | 0.00 | 0.00 | 0.00 | 66 | 1010.0 |
| 20260505225232 | 64 | 6 | 3.5 | 15.6 | 0.00 | 0.00 | 0.00 | 66 | 1009.8 |
| 20260505225114 | 64 | 29 | 1.7 | 13.9 | 0.00 | 0.00 | 0.00 | 66 | 1009.9 |
| 20260505224956 | 64 | 88 | 2.6 | 13.9 | 0.00 | 0.00 | 0.00 | 66 | 1009.9 |
| 20260505224900 | 64 | 30 | 2.6 | 13.9 | 0.00 | 0.00 | 0.00 | 66 | 1009.7 |
| 20260505224803 | 64 | 68 | 5.2 | 13.9 | 0.00 | 0.00 | 0.00 | 66 | 1009.7 |
| 20260505224727 | 64 | 56 | 7.0 | 13.9 | 0.00 | 0.00 | 0.00 | 65 | 1009.7 |
| 20260505224610 | 64 | 18 | 6.1 | 12.2 | 0.00 | 0.00 | 0.00 | 65 | 1009.7 |
| 20260505224456 | 64 | 25 | 5.2 | 12.2 | 0.00 | 0.00 | 0.00 | 65 | 1009.6 |
| 20260505224359 | 64 | 12 | 4.3 | 12.2 | 0.00 | 0.00 | 0.00 | 65 | 1009.6 |
| 20260505224322 | 64 | 47 | 4.3 | 12.2 | 0.00 | 0.00 | 0.00 | 65 | 1009.6 |
| 20260505224205 | 64 | 329 | 3.5 | 11.3 | 0.00 | 0.00 | 0.00 | 65 | 1009.6 |
| 20260505224110 | 64 | 77 | 3.5 | 11.3 | 0.00 | 0.00 | 0.00 | 65 | 1009.6 |
| 20260505224012 | 64 | 40 | 3.5 | 11.3 | 0.00 | 0.00 | 0.00 | 65 | 1009.5 |
| 20260505223859 | 65 | 42 | 4.3 | 18.2 | 0.00 | 0.00 | 0.00 | 65 | 1009.6 |
| 20260505223803 | 65 | 311 | 3.5 | 18.2 | 0.00 | 0.00 | 0.00 | 65 | 1009.6 |
| 20260505223706 | 65 | 13 | 3.5 | 18.2 | 0.00 | 0.00 | 0.00 | 65 | 1009.6 |
| 20260505223610 | 65 | 30 | 5.2 | 18.2 | 0.00 | 0.00 | 0.00 | 65 | 1009.6 |
| 20260505223512 | 65 | 8 | 5.2 | 18.2 | 0.00 | 0.00 | 0.00 | 64 | 1009.5 |
| 20260505223355 | 65 | 21 | 2.6 | 18.2 | 0.00 | 0.00 | 0.00 | 64 | 1009.6 |
| 20260505223303 | 65 | 59 | 4.3 | 18.2 | 0.00 | 0.00 | 0.00 | 64 | 1009.6 |
| 20260505223207 | 65 | 34 | 7.8 | 18.2 | 0.00 | 0.00 | 0.00 | 64 | 1009.7 |
| 20260505223111 | 65 | 18 | 6.1 | 18.2 | 0.00 | 0.00 | 0.00 | 64 | 1009.8 |
| 20260505223034 | 65 | 352 | 2.6 | 13.0 | 0.00 | 0.00 | 0.00 | 64 | 1009.7 |
| 20260505222856 | 65 | 360 | 2.6 | 13.0 | 0.00 | 0.00 | 0.00 | 64 | 1009.7 |
| 20260505222800 | 65 | 345 | 2.6 | 13.0 | 0.00 | 0.00 | 0.00 | 64 | 1009.8 |
| 20260505222707 | 65 | 71 | 3.5 | 13.0 | 0.00 | 0.00 | 0.00 | 64 | 1009.7 |
| 20260505222611 | 65 | 54 | 5.2 | 13.0 | 0.00 | 0.00 | 0.00 | 64 | 1009.8 |
| 20260505222513 | 66 | 319 | 4.3 | 13.0 | 0.00 | 0.00 | 0.00 | 63 | 1009.8 |